GFSGL_700_rhum_000.txt.gz
RH
50 39 34 38 38 32 21 15 14 37 68 92 94 94 97 95 97 93 93 98 97 90 73 54 34 22 18 16 15 16 17 16 16 20 17 16 17 15 13 14 17 24 38
37 42 45 38 22 15 13 12 30 64 92 87 93 97 96 96 95 93 95 96 94 74 43 16 12 12 11 10 8 8 8 8 9 7 8 8 8 9 10 10 9 11 14
62 47 30 22 17 18 18 43 70 99 94 95 96 97 96 94 96 96 95 89 48 21 15 13 12 10 9 11 14 17 20 23 22 20 15 14 14 15 15 14 11 8 8
60 35 24 20 24 41 58 70 96 100 98 99 97 97 98 99 95 88 53 30 20 16 14 11 10 10 13 24 30 32 36 38 40 41 38 33 31 26 22 19 16 15 11
25 21 18 24 50 72 86 89 93 96 98 98 96 96 96 94 82 56 33 22 19 16 13 12 12 19 30 36 39 40 41 44 49 50 47 43 39 40 39 33 24 19 14
22 27 43 62 67 90 97 98 97 96 96 97 97 94 88 63 38 27 23 18 15 14 12 11 17 25 33 36 40 59 68 68 67 68 67 65 65 67 69 68 58 41 17
32 54 76 88 83 100 100 98 96 96 95 94 88 66 42 32 25 22 20 20 19 17 16 16 25 29 32 54 69 75 78 83 84 82 77 75 76 77 77 74 71 65 56
58 62 77 94 99 99 96 94 88 66 38 28 29 28 29 29 29 31 31 28 25 23 22 30 25 44 72 77 79 80 82 84 86 92 93 86 83 85 84 84 82 78 74
72 71 83 81 76 70 43 25 24 24 26 28 30 34 36 40 43 36 30 26 28 29 36 26 71 80 86 89 88 86 86 86 96 97 97 98 97 94 92 89 83 82 75
94 87 88 72 54 24 21 24 26 28 29 38 51 52 54 55 50 48 48 46 40 39 28 77 90 96 97 100 98 96 93 94 97 96 98 99 98 99 98 94 92 87 85
97 93 73 54 26 19 27 28 31 33 36 44 50 61 69 66 64 62 58 53 41 28 77 89 96 99 100 100 100 100 100 97 96 96 96 98 97 99 97 96 97 99 97
90 73 56 39 24 29 29 33 35 36 45 52 66 73 73 74 68 58 55 39 34 80 93 96 96 100 99 98 96 96 96 97 99 97 98 99 100 99 100 99 96 92 94
75 65 49 27 30 32 34 34 35 56 69 80 80 70 63 62 60 58 36 43 89 97 98 100 98 97 97 99 98 97 100 100 100 100 99 99 99 99 98 99 98 98 96
74 58 30 30 33 36 32 46 68 83 80 74 70 66 63 62 61 38 49 98 99 98 100 98 97 97 98 98 98 97 99 98 97 96 97 98 98 98 98 98 98 98 99
59 34 30 36 37 29 45 78 83 78 73 70 74 69 62 59 41 58 97 97 98 98 98 97 97 100 100 94 88 98 100 100 98 97 98 98 93 92 98 98 99 100 96
26 29 36 35 34 47 74 79 78 75 81 84 74 67 57 48 74 99 99 98 98 98 98 97 97 100 97 90 89 92 97 100 100 99 99 97 93 88 89 96 97 98 98
33 34 31 31 48 69 78 68 69 83 90 84 80 68 68 90 96 99 98 98 98 98 97 97 98 99 95 87 81 82 89 94 98 100 100 100 100 95 89 86 91 98 100
27 23 26 48 66 76 71 74 82 84 84 86 89 91 92 94 98 99 98 98 98 97 98 98 97 98 96 89 85 81 81 90 97 98 100 100 99 96 96 93 89 86 87
19 23 48 62 73 70 72 80 89 90 94 95 97 98 99 100 98 98 98 98 97 97 98 98 97 97 96 90 86 84 86 85 83 85 98 100 100 97 97 97 100 97 97
24 41 54 69 72 71 74 90 94 93 95 96 94 96 98 99 100 99 98 98 97 97 98 98 97 96 95 92 88 88 91 90 88 85 81 83 92 90 87 84 86 88 85
35 45 56 65 72 73 79 92 90 90 94 96 96 98 97 98 97 97 98 98 98 97 98 98 98 93 79 50 38 39 48 61 77 86 89 83 79 80 82 84 83 83 84
34 39 49 63 75 76 84 90 84 86 94 96 97 100 98 99 98 97 98 98 98 98 98 98 92 47 13 2 3 4 4 4 5 9 47 82 87 85 82 81 81 83 88
33 45 55 68 73 78 84 89 85 82 94 94 98 98 98 98 98 99 99 99 99 99 98 98 65 10 15 32 36 33 32 31 29 28 28 21 20 50 87 92 91 93 95
39 52 61 68 76 81 83 87 89 80 84 97 97 96 96 97 98 99 99 99 99 99 98 98 49 35 43 39 34 31 29 28 27 27 27 26 26 27 29 28 40 82 99
41 49 67 67 77 83 85 89 91 87 76 90 98 99 92 96 98 99 99 99 99 99 99 98 89 60 44 40 36 35 33 30 28 27 26 24 23 22 22 23 24 28 30
35 38 58 69 74 83 86 89 95 94 85 79 93 99 98 94 96 98 99 99 100 100 99 99 98 82 51 44 42 41 40 38 36 35 34 31 29 27 26 24 22 19 16

GFSGL_700_rhum_003.txt.gz
RH
82 75 66 61 37 27 19 10 14 28 49 75 91 97 97 96 98 96 95 96 96 94 95 93 92 86 79 54 28 18 14 14 15 14 14 15 16 18 21 27 36 38 28
84 73 68 55 36 17 12 16 32 51 64 90 97 92 96 97 97 97 96 94 95 94 95 95 86 55 29 18 14 12 11 11 12 10 9 10 9 7 8 8 10 13 14
96 67 31 17 13 16 31 46 61 76 83 94 96 96 92 91 92 97 96 96 93 68 40 28 21 19 18 14 12 11 12 15 20 24 22 22 23 20 16 13 12 10 9
24 15 13 12 27 42 50 65 80 94 93 87 84 86 87 87 90 87 86 78 57 34 23 23 21 18 15 12 11 14 20 26 31 34 36 35 37 37 32 28 22 20 18
20 14 14 24 50 54 65 80 95 100 100 99 94 96 96 94 87 76 61 38 28 26 24 23 20 18 16 17 20 23 28 34 39 40 42 43 43 48 48 48 40 31 22
16 15 35 62 65 62 74 88 99 99 97 89 75 52 30 26 26 27 28 27 25 25 25 22 20 19 20 27 32 32 33 37 54 69 72 72 71 72 70 68 66 64 53
24 39 60 84 83 79 77 74 62 34 26 24 25 27 29 31 32 35 36 38 38 34 26 22 19 24 32 31 25 36 68 80 84 83 77 75 76 77 77 76 76 74 69
45 65 84 97 91 81 68 35 22 24 26 27 29 30 30 40 52 54 55 54 48 39 34 32 40 45 31 38 71 81 85 85 90 96 91 84 84 85 85 83 83 80 75
59 98 100 99 82 60 29 20 26 27 27 31 30 31 39 43 53 62 62 56 49 50 52 55 49 33 71 94 94 93 91 89 95 96 98 98 96 98 93 92 91 88 82
100 100 99 89 55 28 21 28 30 32 31 30 42 57 67 76 80 75 68 61 56 56 54 45 42 93 99 99 100 100 92 92 94 99 100 100 100 95 94 93 93 95 92
89 98 78 64 35 20 28 35 34 27 36 58 68 77 82 82 75 68 64 60 56 52 41 43 96 99 98 99 100 98 97 96 95 93 96 97 98 97 93 92 89 93 97
76 72 67 48 26 28 36 34 28 53 69 68 62 66 70 71 70 66 63 60 53 36 58 96 96 98 98 99 96 98 97 97 98 98 97 98 97 97 98 96 96 96 99
81 76 50 32 30 37 32 30 55 75 67 65 72 77 74 68 64 60 54 44 50 93 99 98 98 99 98 98 94 95 99 100 100 100 99 99 99 99 100 99 98 96 96
85 58 27 29 36 34 34 58 77 74 69 82 82 80 73 68 56 54 66 94 100 100 99 99 98 98 96 98 98 100 99 99 100 100 100 99 98 98 98 97 97 98 98
60 29 29 35 31 33 55 77 76 74 83 90 88 85 83 77 86 97 100 98 99 99 98 98 98 98 99 99 95 92 90 96 96 94 96 99 98 95 94 97 100 100 98
34 33 33 29 29 52 67 71 77 86 97 95 94 97 98 96 97 100 100 99 99 99 98 98 98 97 100 99 85 82 87 89 94 95 94 98 95 88 80 86 94 94 100
35 30 25 26 49 62 67 64 70 92 96 95 100 100 95 97 100 100 99 99 99 98 98 98 97 98 100 96 86 80 77 84 90 94 96 100 99 96 96 93 94 92 91
25 23 26 46 60 67 66 68 81 82 81 91 100 95 92 97 99 100 100 98 98 98 98 98 98 98 98 90 86 83 82 85 84 90 94 94 95 97 95 97 96 96 97
20 32 44 57 62 62 71 74 80 76 81 92 96 97 100 99 96 98 98 99 98 98 98 98 98 98 95 85 73 74 79 84 88 82 83 92 95 97 97 95 95 97 99
32 37 47 53 58 70 72 77 79 74 80 90 92 97 100 100 100 100 100 98 98 98 98 98 97 94 55 16 18 22 37 56 76 87 87 82 83 95 96 91 86 83 83
38 39 45 50 64 70 73 76 79 76 76 90 91 96 97 97 96 98 99 98 98 99 98 98 94 26 0 0 2 5 5 4 5 35 78 89 86 85 86 88 90 89 85
45 43 53 58 64 73 75 80 81 81 73 87 92 94 96 97 98 98 97 98 97 98 98 97 70 6 9 31 35 33 31 31 30 28 22 28 69 95 96 93 90 87 87
49 48 54 62 66 72 78 81 85 86 79 77 92 93 92 93 97 99 99 98 98 98 98 96 56 23 36 37 32 30 29 28 27 26 26 28 30 31 40 67 94 100 98
46 43 46 55 68 71 79 83 87 92 90 80 84 92 94 93 95 98 99 99 100 99 98 98 79 62 44 36 33 32 30 29 26 25 24 23 22 23 24 26 30 36 41
43 41 42 47 67 75 81 86 89 88 96 94 87 88 94 94 92 96 99 99 99 100 100 99 99 95 65 43 39 37 36 34 32 31 29 27 25 24 23 22 20 18 18
38 39 42 44 59 78 90 97 98 94 90 96 97 97 97 97 97 95 96 98 98 100 100 100 100 98 90 65 52 50 49 48 46 42 38 35 32 31 29 28 27 25 22

GFSGL_700_rhum_009.txt.gz
RH
100 97 78 70 60 45 32 16 10 12 26 41 52 63 86 95 94 95 93 87 94 99 100 100 100 100 99 100 94 88 94 100 98 91 97 84 74 81 90 93 88 81 62
69 72 57 43 26 12 9 8 14 35 56 95 79 89 94 97 98 97 96 100 97 96 100 100 100 100 100 96 90 78 88 82 86 99 100 93 96 97 92 83 91 99 87
44 33 26 14 8 6 5 7 23 46 63 64 66 80 79 81 79 64 68 84 91 97 100 98 88 64 58 53 45 35 56 95 91 94 96 95 87 62 67 74 62 75 82
24 20 14 10 7 5 8 40 73 76 75 68 50 34 23 19 22 42 28 27 28 47 99 88 92 70 42 28 22 24 27 26 24 20 19 28 56 67 79 84 84 86 70
20 18 15 11 9 20 47 64 81 83 69 26 15 21 33 36 80 32 26 27 26 28 33 57 100 100 88 37 38 32 31 29 26 24 22 26 89 100 100 100 100 100 98
47 66 52 36 19 48 70 89 92 59 14 18 27 51 73 77 60 26 42 47 48 48 47 45 55 88 100 66 40 40 37 32 29 25 20 21 37 57 59 48 53 55 55
100 100 100 60 53 76 95 100 100 56 64 81 96 100 88 72 66 48 51 57 55 56 62 67 68 79 82 74 59 54 43 38 38 37 29 26 27 31 43 52 67 80 81
100 93 98 88 72 92 100 100 99 100 100 100 100 75 53 66 61 54 61 65 64 64 63 62 62 60 60 64 54 54 51 45 40 46 56 59 76 86 90 86 88 90 88
96 95 94 90 100 100 100 100 99 100 100 100 60 61 61 58 69 69 70 69 67 64 63 64 63 61 58 56 52 48 44 50 90 97 96 93 92 94 93 94 93 95 91
98 76 67 99 100 100 100 100 100 100 100 52 60 60 58 67 73 77 78 76 70 61 57 58 59 58 54 56 64 88 93 97 100 98 99 99 96 94 98 97 94 97 96
97 95 78 100 100 97 100 100 100 100 89 54 59 63 73 76 83 89 93 92 86 76 80 69 86 98 93 100 100 100 100 100 100 100 98 96 98 97 96 99 99 96 96
98 78 88 98 98 100 100 100 100 100 63 58 64 70 74 86 99 98 95 94 99 99 99 100 100 100 100 100 100 100 100 100 99 99 99 100 100 99 97 98 99 100 100
86 96 100 98 97 100 100 100 100 66 56 62 70 70 80 96 97 92 92 100 100 100 100 100 99 100 99 100 100 99 99 99 100 100 99 100 99 99 99 98 98 100 100
78 96 98 97 60 41 100 98 76 53 60 67 68 73 87 92 94 93 93 96 100 100 100 100 100 100 100 99 100 99 100 100 100 99 99 99 99 99 98 99 100 100 99
97 99 97 40 32 32 41 54 47 54 63 67 68 78 85 93 96 94 92 94 98 99 99 99 99 99 99 99 100 100 100 100 100 100 100 100 100 100 99 100 98 97 99
98 89 30 21 26 34 34 44 50 56 59 59 61 75 87 94 93 91 94 98 99 99 99 99 99 99 99 99 98 99 100 100 100 100 100 100 100 100 97 94 94 94 92
70 24 20 29 31 31 34 47 56 62 61 59 58 76 81 89 90 89 94 97 98 98 98 99 99 98 98 98 98 99 100 100 100 100 100 99 96 97 98 89 86 91 95
23 22 27 33 31 34 40 54 60 63 67 70 62 69 75 84 90 89 94 97 97 98 98 98 99 97 83 64 64 81 97 100 100 97 97 97 95 93 93 89 87 90 96
22 26 34 35 32 35 43 49 59 66 70 72 66 70 76 77 83 88 92 96 98 98 98 98 98 93 22 3 3 4 9 39 84 98 95 89 92 89 89 86 82 85 91
21 22 34 39 33 35 45 50 60 68 69 72 73 69 71 72 79 88 95 96 97 98 98 98 97 73 27 33 34 32 31 28 19 36 90 95 84 84 84 84 78 76 78
23 23 30 39 35 37 46 53 60 67 69 67 72 77 73 73 74 82 90 94 96 98 100 97 90 69 38 34 30 28 27 27 28 29 29 39 89 93 86 80 78 78 80
23 26 30 41 40 40 42 54 66 71 75 76 73 72 79 75 75 78 83 89 96 98 100 99 71 47 43 36 32 30 28 26 25 25 24 26 28 30 50 76 86 89 91
22 27 31 38 42 42 42 46 57 69 72 68 66 70 83 84 81 80 82 85 91 97 99 100 100 88 74 58 41 34 32 30 28 25 23 21 20 20 21 22 25 26 29
22 26 29 34 36 38 37 41 44 48 50 50 49 51 70 89 87 84 84 85 86 91 96 98 100 100 99 94 65 46 41 39 38 35 32 29 27 25 24 23 22 21 20
26 24 28 32 34 35 36 40 44 48 52 55 56 54 52 71 92 92 88 88 88 89 89 94 98 100 100 99 94 78 62 54 51 47 44 40 36 34 32 30 29 28 27
28 28 30 34 36 35 39 45 47 49 53 55 57 59 57 56 78 97 97 93 93 92 94 96 97 98 99 99 98 98 97 86 70 60 55 50 47 44 43 41 39 38 36

GFSGL_700_rhum_015.txt.gz
RH
52 55 72 62 50 55 62 50 43 44 40 31 16 13 14 31 58 51 33 22 18 18 20 30 54 66 71 94 94 94 98 99 95 72 68 66 72 84 97 86 70 98 96
34 21 27 70 83 97 71 69 62 64 47 19 16 17 29 58 51 22 18 16 16 22 32 37 37 37 31 32 30 62 73 50 78 85 85 74 77 78 82 100 98 83 94
57 71 64 96 66 94 97 96 92 90 61 22 22 47 57 46 29 28 30 27 28 37 44 45 48 48 43 40 36 34 34 66 84 58 38 40 46 52 53 68 84 88 95
81 67 80 81 55 76 91 91 99 97 47 34 47 73 58 27 28 40 47 49 54 55 54 52 51 52 54 57 66 58 47 50 53 67 65 67 47 33 34 29 25 26 29
48 59 78 78 88 89 92 80 98 92 53 48 81 92 61 21 49 65 63 56 56 56 60 64 64 64 68 72 76 78 77 76 56 52 42 45 38 32 32 27 26 22 20
69 66 68 74 89 97 98 97 97 86 85 60 95 92 35 47 68 96 79 62 64 67 70 68 69 69 72 72 77 76 77 90 88 85 68 50 47 44 39 32 26 29 28
66 56 54 76 92 97 76 99 87 89 88 90 98 56 38 70 88 72 63 64 66 77 82 86 82 85 82 72 67 68 76 86 96 91 88 68 54 54 48 37 33 27 26
40 28 40 54 65 63 70 97 96 94 100 93 65 30 74 85 68 62 62 67 78 87 90 91 91 92 98 76 61 61 66 71 81 91 88 62 56 51 48 43 40 40 33
30 44 58 56 52 53 73 95 72 100 97 96 29 53 54 54 54 56 63 72 87 91 91 96 98 96 99 100 90 65 63 64 66 64 61 55 53 50 54 72 72 80 69
60 70 69 55 60 63 66 70 100 99 93 24 47 40 49 51 55 58 68 83 86 85 91 96 100 100 100 100 94 92 82 84 78 78 77 77 88 82 94 99 95 92 90
66 64 56 65 67 72 76 98 100 90 22 33 39 48 54 58 54 66 78 84 83 86 93 96 100 100 100 100 100 99 97 94 94 93 92 94 98 98 99 100 99 95 93
56 52 56 66 75 79 89 96 55 20 29 36 46 53 60 54 60 69 82 84 88 95 98 100 100 100 100 100 100 100 100 100 100 99 98 99 100 100 100 99 100 100 99
49 53 62 62 70 76 44 18 21 23 28 41 50 55 54 52 59 66 82 85 95 99 99 99 100 100 100 100 100 100 100 100 100 100 100 100 100 100 100 99 99 99 99
54 57 62 69 55 17 18 22 22 25 32 45 52 52 58 55 54 61 74 83 95 99 99 99 99 99 99 99 100 100 100 100 100 100 100 99 99 100 100 100 100 100 100
60 64 71 51 17 16 23 22 19 23 32 44 52 50 58 57 54 57 72 82 90 96 98 99 100 99 99 99 99 99 100 100 100 99 100 100 100 100 100 100 98 96 82
65 74 71 21 16 21 26 21 22 30 38 46 52 50 52 60 56 55 70 85 91 97 98 98 99 99 98 97 99 100 100 100 100 100 99 99 100 100 99 100 100 97 89
71 82 45 16 18 21 28 22 22 31 35 41 53 55 51 49 59 61 70 78 85 91 97 98 98 81 28 15 11 18 62 99 99 98 98 100 97 95 98 100 98 99 100
78 80 26 18 18 21 31 28 26 26 28 37 45 54 55 47 60 71 68 71 83 90 94 97 99 96 77 50 38 38 36 38 92 100 100 100 99 94 98 100 100 100 96
85 79 22 20 21 23 30 32 30 30 30 36 39 46 47 48 58 77 74 68 71 82 92 97 98 99 92 62 35 33 34 36 38 48 98 100 100 100 96 94 96 94 93
90 64 21 20 22 24 30 33 32 29 32 33 35 42 46 48 46 63 76 72 73 75 86 95 97 89 94 91 82 41 34 34 32 32 37 55 100 100 95 94 91 89 89
89 43 21 21 22 25 28 31 31 29 32 33 36 40 47 52 54 48 60 81 79 79 79 87 95 99 91 82 79 68 45 34 31 28 27 28 32 39 71 98 100 96 92
80 36 23 23 23 25 27 28 29 31 33 34 37 39 41 44 48 50 48 72 87 85 84 84 89 96 98 100 100 94 63 44 40 36 31 27 23 23 22 24 28 30 31
67 35 28 25 24 24 26 29 28 32 34 35 40 39 38 37 37 40 44 52 79 92 89 88 90 92 96 98 100 100 97 80 59 51 46 40 35 31 29 26 25 24 23
61 41 37 32 26 27 27 30 28 28 34 38 42 41 39 39 37 37 38 42 53 83 95 92 91 92 95 98 100 100 100 100 98 93 70 56 51 45 42 38 37 35 33
67 50 46 37 26 26 28 32 31 31 33 40 46 46 44 45 49 52 51 46 43 47 76 95 97 94 95 96 98 99 100 100 100 100 99 96 76 59 55 52 49 47 46
81 66 58 46 32 25 26 31 36 36 36 42 49 53 50 51 56 56 57 59 58 51 50 72 91 99 99 96 98 100 100 100 100 100 100 100 94 80 68 60 55 53 50

GFSGL_700_rhum_018.txt.gz
RH
25 16 13 13 13 13 42 76 69 55 96 96 98 96 70 30 35 46 44 21 17 13 16 26 33 37 35 36 36 36 36 59 84 90 97 94 86 82 84 86 80 81 90
10 14 19 16 17 46 68 66 56 93 80 87 96 85 60 47 54 51 44 29 21 18 20 23 25 29 31 33 35 33 32 25 24 19 30 58 78 89 87 72 81 88 82
10 12 17 30 57 72 69 69 74 96 96 81 95 94 87 62 76 58 52 42 27 27 35 41 43 44 44 47 47 46 45 47 44 35 23 23 39 42 33 33 44 77 84
14 18 44 78 82 80 70 66 94 96 97 92 92 74 87 84 79 47 43 36 34 41 45 47 49 52 53 54 56 57 58 55 51 51 45 40 44 35 44 43 32 41 59
37 70 90 88 57 37 75 79 83 78 89 86 81 100 100 96 42 58 45 40 43 44 49 55 66 74 78 76 75 70 70 68 68 62 57 60 70 59 52 46 32 23 28
56 67 55 35 21 35 38 41 48 68 95 98 100 100 100 44 45 44 41 41 44 50 62 74 82 85 86 86 85 86 83 76 75 76 71 68 65 63 61 60 44 31 23
36 27 22 19 29 37 43 51 55 83 94 78 100 100 65 37 41 44 50 50 50 63 74 84 83 82 85 87 89 94 88 76 73 77 82 74 70 67 68 65 58 46 34
14 15 18 29 34 47 52 55 57 94 67 100 99 52 50 42 45 47 42 47 60 72 80 81 81 84 90 92 97 100 100 82 67 67 72 71 70 67 68 58 52 47 40
13 23 32 31 39 48 58 59 65 70 88 97 64 54 35 41 43 42 42 51 64 74 76 83 93 94 95 97 100 99 96 100 84 71 68 66 61 60 58 55 49 46 40
30 30 35 33 46 54 60 73 74 83 83 45 35 31 39 42 48 48 46 52 67 71 81 88 95 96 99 100 100 100 99 100 100 94 84 74 67 62 60 56 51 57 62
24 41 40 40 52 62 62 74 85 50 23 28 27 34 46 49 52 49 48 56 68 75 85 89 96 98 99 100 100 100 100 99 100 98 93 91 88 83 85 91 97 94 91
28 45 46 54 64 66 70 54 18 21 27 24 30 44 50 48 53 48 50 64 74 82 90 94 95 97 99 100 100 100 100 100 100 100 100 100 100 100 100 100 100 99 99
32 56 61 62 69 67 26 16 21 24 21 27 34 44 48 43 50 51 55 66 80 88 95 96 98 98 99 100 100 100 100 100 100 100 100 100 100 100 100 100 100 100 100
47 62 64 65 75 34 18 20 25 22 24 28 34 45 48 45 42 50 48 56 77 85 95 98 98 98 97 98 100 100 100 100 100 100 100 100 100 100 100 100 100 100 100
55 69 73 72 70 22 18 23 28 23 23 27 33 46 47 48 42 43 48 52 68 81 91 99 100 96 96 89 93 97 100 100 100 100 100 100 100 100 100 100 100 100 92
60 74 80 81 58 19 19 24 32 25 25 29 34 42 41 40 37 41 52 57 64 76 87 97 100 87 40 39 35 33 86 100 100 100 100 100 100 100 100 100 100 100 98
65 74 80 86 36 19 20 20 32 31 31 29 33 35 35 36 36 40 54 63 62 70 86 96 99 99 89 54 36 37 39 48 100 100 100 100 99 100 100 100 100 97 95
70 75 82 73 25 22 22 22 29 29 31 30 32 32 35 40 41 43 51 69 71 71 76 90 96 98 98 89 46 36 35 38 43 88 100 100 100 100 100 97 97 95 86
64 78 87 61 22 22 22 25 28 30 28 29 30 34 37 39 44 48 49 61 69 70 73 80 92 96 95 97 97 79 38 34 34 39 55 99 100 100 100 100 100 97 92
74 80 84 46 23 23 24 26 29 29 28 30 31 36 37 36 40 47 49 49 63 73 74 77 81 90 97 96 95 97 92 42 33 30 31 37 54 100 100 100 98 98 97
84 83 82 40 24 23 24 26 27 28 28 32 31 37 38 35 36 36 38 41 45 73 82 79 82 85 92 96 97 98 98 86 52 38 31 26 25 27 35 52 92 99 99
90 87 75 40 30 25 26 27 26 28 29 33 33 39 40 37 37 36 34 35 37 48 79 87 83 84 88 94 98 96 97 99 83 68 49 40 34 29 24 22 22 24 26
92 90 71 44 39 36 28 28 28 30 30 31 33 40 43 40 41 45 47 44 39 39 47 73 91 88 86 86 91 95 98 98 100 99 82 62 50 43 37 33 29 27 26
87 85 74 52 50 44 29 28 28 31 32 31 33 40 47 46 45 48 49 50 51 50 44 44 59 87 95 90 90 90 93 96 96 98 99 99 86 64 52 48 44 41 38
82 82 80 67 61 51 35 26 26 30 35 34 36 41 49 52 52 52 53 57 60 62 65 58 47 53 80 94 96 94 93 95 98 98 99 99 99 99 87 65 58 54 51
95 93 91 81 75 66 50 37 29 29 33 38 40 44 49 56 59 61 62 64 70 73 72 76 69 49 52 75 96 97 97 97 97 99 99 99 100 100 99 94 80 67 58

GFSGL_700_rhum_021.txt.gz
RH
49 27 11 9 10 21 40 53 74 84 85 79 78 97 93 98 92 92 82 62 30 22 29 22 28 37 33 33 37 40 40 43 36 21 17 18 40 91 99 94 71 73 74
20 10 9 11 14 20 41 78 91 76 42 46 76 85 97 92 95 85 76 68 25 39 38 32 38 40 37 38 37 37 41 47 51 45 36 24 17 18 30 65 88 79 66
9 10 10 9 22 68 76 48 21 19 26 40 49 60 100 97 78 93 93 41 34 39 42 42 44 44 44 49 52 54 55 52 53 58 55 47 40 33 29 24 20 42 72
10 10 11 40 51 31 19 16 20 33 39 43 55 91 83 80 99 98 79 29 36 43 47 48 49 56 61 65 68 70 70 71 74 72 64 64 61 51 41 36 29 25 28
10 12 21 21 14 13 14 17 28 41 51 56 69 99 76 100 99 92 34 33 43 46 47 50 60 68 75 78 77 72 74 79 86 91 79 74 73 68 59 55 49 35 23
11 13 12 12 13 13 17 22 32 48 43 53 72 81 94 100 83 30 32 42 44 44 47 54 69 74 74 78 83 85 82 84 91 94 86 81 84 82 76 70 63 50 27
12 11 12 13 14 16 20 25 41 52 48 66 66 80 95 43 26 32 41 45 43 43 50 64 69 74 82 92 97 98 96 93 100 100 93 79 75 83 88 73 69 62 47
11 12 13 17 18 18 24 31 50 56 70 78 88 64 27 28 31 36 40 36 40 45 59 70 76 85 93 95 97 99 100 99 100 100 100 83 68 70 77 76 67 56 53
11 12 17 20 19 27 34 42 58 65 83 95 50 27 25 27 34 38 36 36 41 49 69 81 87 87 92 96 97 97 99 100 100 100 100 93 81 72 68 66 62 58 49
12 17 20 21 22 38 46 57 65 74 88 32 22 22 22 29 33 37 37 41 41 52 75 86 91 94 98 100 100 100 99 100 100 100 100 93 82 75 73 68 65 56 49
15 18 21 32 33 50 56 67 58 30 21 23 21 21 26 30 37 38 38 40 43 58 76 86 93 96 99 100 100 100 100 100 100 100 100 100 97 87 78 71 68 64 60
16 22 34 41 47 60 67 66 23 19 23 22 20 24 31 35 40 43 39 41 50 58 78 87 94 93 98 100 99 100 100 100 100 100 100 100 100 100 100 100 98 100 100
22 29 37 48 60 69 77 47 20 21 27 22 24 29 33 35 41 44 38 42 49 58 77 88 95 93 97 99 99 99 100 100 100 100 100 100 100 100 100 100 100 100 100
26 34 46 54 70 79 82 36 21 26 30 25 25 29 31 36 38 38 36 35 47 54 73 90 95 93 54 84 72 67 100 100 100 100 100 100 100 100 100 100 100 100 100
26 41 53 60 78 87 81 27 22 24 32 27 27 29 31 33 33 35 35 35 44 54 66 87 98 100 85 47 62 42 84 99 99 100 100 99 99 100 100 100 100 99 100
28 46 63 70 88 94 64 23 23 23 32 30 29 30 31 32 34 36 40 38 44 58 64 78 96 99 99 92 45 38 41 73 99 100 100 99 99 100 100 100 100 100 100
32 55 66 70 92 93 44 22 24 26 34 33 32 32 31 34 34 35 40 44 43 56 68 70 85 96 98 98 92 49 36 38 48 100 100 100 100 100 100 100 100 100 100
36 59 70 73 89 86 35 25 25 26 34 42 35 33 32 35 33 32 36 44 46 58 68 70 73 85 96 96 94 97 74 36 35 42 82 100 100 100 99 98 100 100 100
41 59 80 84 90 76 31 25 24 26 28 32 32 32 32 36 32 31 32 34 40 44 61 70 74 77 85 93 97 97 95 92 41 31 32 43 95 100 100 96 96 98 100
48 64 87 93 96 67 30 24 25 24 26 30 31 33 33 38 33 33 32 31 32 35 39 63 75 76 79 85 91 95 99 98 95 59 35 28 28 48 97 100 100 100 98
53 72 86 99 100 60 34 26 24 24 25 29 31 34 34 40 36 36 39 40 38 34 33 36 59 79 79 82 86 90 93 96 98 95 88 46 35 27 24 30 44 91 100
59 76 84 99 96 58 40 39 29 25 26 29 32 34 34 41 42 39 40 40 40 43 43 40 37 43 71 82 85 87 91 93 95 96 96 94 73 45 36 30 25 23 23
65 78 82 94 90 64 49 49 37 26 27 29 32 33 35 41 46 44 43 43 45 49 50 49 51 45 39 50 79 84 86 90 93 96 99 98 98 92 67 46 39 34 31
64 75 86 85 86 75 63 61 49 28 26 28 34 35 36 40 47 51 50 50 51 57 61 59 57 56 54 41 42 69 85 86 89 92 95 97 99 99 98 85 60 50 46
56 70 86 94 91 86 78 75 64 45 31 27 31 39 41 42 47 55 58 59 61 65 67 67 68 65 64 57 41 43 65 87 90 91 93 96 99 100 100 100 98 79 62
50 63 82 92 100 100 96 96 97 95 90 66 37 35 42 47 49 54 61 65 68 73 75 77 78 76 71 68 48 39 51 77 91 93 95 97 98 99 100 100 100 100 94

GFSGL_700_rhum_024.txt.gz
RH
64 45 18 10 10 9 9 10 12 12 12 14 18 23 30 41 93 100 98 98 90 88 85 26 26 30 31 33 36 38 41 51 50 39 39 34 31 28 21 17 24 85 89
40 17 11 11 10 12 12 9 9 9 11 13 22 30 42 57 78 84 87 86 91 95 52 26 33 34 34 36 42 48 54 62 67 63 56 52 44 44 44 34 25 23 38
21 13 12 12 10 8 7 8 9 10 12 20 32 44 52 64 91 90 94 97 98 63 28 35 36 36 38 48 56 65 71 74 78 79 64 67 63 58 56 54 45 39 29
15 13 11 9 8 7 7 8 10 12 17 24 38 35 47 79 100 96 97 98 44 29 39 43 41 42 49 60 68 68 71 74 78 77 74 75 77 76 73 69 61 55 43
13 12 10 8 7 7 8 9 12 16 22 32 45 40 66 76 90 92 90 24 28 37 40 41 38 45 63 72 78 83 91 93 95 92 86 89 91 90 90 90 99 71 56
12 10 9 8 8 9 10 12 15 23 28 45 55 64 68 76 81 31 18 26 35 37 39 34 37 60 71 82 86 93 98 100 100 100 100 97 100 99 100 100 100 85 69
11 9 8 8 9 10 12 16 21 33 39 54 65 81 87 72 20 18 22 30 34 34 31 32 50 69 80 84 92 95 98 100 100 100 100 100 98 100 100 98 97 96 81
10 9 8 9 10 12 23 23 34 43 55 64 79 89 50 22 19 20 26 31 30 29 32 37 61 79 87 89 91 91 96 100 100 100 100 100 99 100 100 80 75 82 80
10 9 9 11 12 22 31 32 44 56 65 60 63 30 24 19 20 26 30 32 32 29 35 47 69 85 90 93 95 94 98 100 100 100 100 100 99 99 98 92 78 78 66
10 10 12 14 18 25 36 42 54 68 48 21 20 23 19 21 24 28 31 34 31 30 41 51 75 89 93 96 98 98 98 100 100 100 100 100 100 100 93 84 84 76 64
11 14 16 17 19 30 41 54 65 74 33 21 24 24 21 22 25 30 32 32 31 32 43 50 76 92 91 89 98 99 99 99 100 100 100 100 100 100 100 94 79 70 65
14 18 21 21 24 38 47 63 78 77 27 22 28 25 23 24 26 29 31 32 34 38 44 52 75 92 71 69 88 54 98 100 100 100 100 100 100 100 100 100 100 97 95
17 22 25 25 30 47 57 71 87 72 24 23 32 28 26 26 28 29 32 34 38 39 47 52 74 92 92 56 67 56 71 100 99 99 100 100 100 100 100 100 100 100 100
20 24 26 29 37 58 66 82 92 53 22 23 35 33 28 28 30 32 33 34 40 40 46 55 65 87 93 97 62 52 41 96 99 99 100 100 99 100 100 100 100 100 100
26 29 30 33 41 61 65 85 88 38 23 24 34 36 29 30 30 32 31 32 38 41 44 57 62 82 96 100 98 61 38 51 99 100 100 100 100 99 100 100 100 100 100
33 35 34 38 50 71 72 91 84 32 23 25 32 36 31 30 30 33 29 30 34 40 41 53 64 68 82 92 97 99 64 36 49 98 99 99 100 98 98 99 100 100 100
39 39 41 44 56 82 84 93 76 30 24 25 30 36 31 30 32 33 28 28 28 32 38 46 64 67 72 83 93 96 100 77 33 38 88 99 99 99 99 96 98 98 100
45 51 50 49 66 91 95 95 60 27 25 29 31 35 31 30 33 34 29 29 29 28 31 35 52 65 70 75 83 92 97 100 89 38 30 40 97 100 100 100 95 92 95
47 53 55 56 72 94 100 98 54 29 25 26 32 35 33 32 33 37 31 30 33 33 32 32 33 46 67 72 75 80 87 92 98 99 60 34 28 59 99 100 99 95 94
53 59 62 63 79 91 100 98 51 33 27 26 29 31 32 33 33 39 35 32 34 35 38 40 38 34 37 61 72 76 81 88 93 96 99 92 45 31 27 52 95 97 93
55 58 65 67 82 95 100 96 54 41 38 28 29 30 32 35 35 38 41 36 35 38 42 44 45 45 42 37 42 67 76 79 83 88 91 98 99 70 40 30 24 27 62
55 58 62 67 78 88 96 92 64 51 48 31 29 31 32 33 34 35 44 44 41 42 47 50 50 49 47 48 41 36 52 78 80 81 84 88 95 99 97 59 40 31 26
56 56 55 60 71 86 87 90 76 64 60 44 28 30 33 34 34 35 41 48 50 50 52 55 57 58 55 52 51 44 35 41 75 83 83 87 91 94 98 99 92 56 43
65 59 52 54 66 81 93 94 91 80 77 63 44 29 30 36 38 39 41 47 53 57 60 62 64 67 68 64 58 54 43 34 42 73 86 86 90 94 95 98 100 97 86
73 62 55 52 58 77 91 99 100 99 96 96 95 92 70 40 36 42 46 47 52 60 66 70 72 76 78 75 69 61 52 37 35 53 82 91 91 95 97 98 99 100 100
76 65 58 52 52 67 86 99 100 100 100 100 99 99 98 99 96 60 45 49 54 60 69 79 84 86 85 81 77 69 60 42 35 44 76 95 96 94 97 98 98 100 100

GFSGL_700_rhum_027.txt.gz
RH
98 97 54 58 24 18 12 9 7 6 6 8 9 11 16 23 38 37 58 81 75 92 86 78 91 37 30 34 36 36 39 45 50 45 52 52 49 48 47 43 32 26 16
96 69 44 26 22 12 9 8 7 6 7 8 10 13 20 32 37 39 71 94 100 86 84 90 26 30 33 33 34 38 50 62 69 58 56 58 57 57 56 55 51 40 30
53 43 33 20 12 10 9 7 7 7 7 8 10 18 28 44 48 54 88 92 90 90 72 23 30 33 31 34 39 52 67 72 78 78 68 76 73 67 64 69 68 58 49
50 33 18 12 11 10 8 7 7 8 10 13 19 28 44 51 59 79 92 89 79 32 24 32 33 32 34 39 58 68 77 81 88 90 82 85 88 82 98 83 81 76 63
36 19 13 12 12 10 8 8 9 11 16 17 29 39 53 70 81 84 88 37 20 23 30 29 26 30 38 59 72 80 84 88 93 94 89 91 93 97 96 97 100 100 98
22 14 13 13 11 10 9 10 11 15 21 24 37 54 66 82 96 83 21 17 23 27 27 28 24 28 43 67 83 86 92 98 97 98 94 100 99 100 100 100 100 100 96
14 14 14 13 11 10 10 12 14 22 27 36 50 59 70 79 35 20 18 22 24 29 30 28 24 31 51 72 86 89 96 99 100 100 100 100 100 100 100 100 100 100 100
14 14 14 14 11 11 13 15 20 28 34 44 58 34 21 20 21 18 19 23 28 30 29 27 26 36 62 80 86 84 94 97 100 100 100 100 100 100 100 100 100 100 98
14 15 15 13 12 13 17 19 27 34 42 55 58 23 19 23 18 18 21 28 28 28 28 29 36 46 69 88 80 86 88 93 99 100 100 99 100 100 100 100 100 100 96
14 15 14 13 14 19 21 22 32 43 54 70 56 22 23 24 19 20 25 27 28 28 28 32 43 54 79 85 65 82 52 87 95 96 98 98 98 100 100 100 94 88 91
16 16 14 15 19 22 23 27 40 51 65 80 52 22 27 26 22 24 27 28 28 28 32 36 46 57 84 89 59 63 46 82 96 96 95 96 99 100 100 100 100 89 79
17 15 16 20 24 25 26 32 50 55 75 83 38 22 28 29 24 25 27 30 29 31 38 41 48 55 80 89 86 66 41 74 96 97 96 99 100 100 100 100 100 100 95
14 14 18 25 29 30 31 37 56 57 81 76 29 22 28 31 26 26 30 30 29 34 39 41 47 56 71 84 89 82 47 46 98 98 98 99 100 100 100 100 100 100 100
12 17 22 30 34 34 37 42 62 66 86 68 27 22 26 33 27 27 32 29 29 30 36 40 46 56 63 81 89 94 74 38 71 99 99 99 99 100 99 100 100 100 99
19 26 31 36 39 40 42 46 70 77 86 61 26 24 26 34 28 28 33 28 27 27 29 36 43 62 69 80 90 93 96 56 37 86 100 99 99 100 99 100 100 100 100
28 32 36 37 43 47 45 53 82 86 84 50 26 25 27 32 29 29 34 29 28 28 28 29 34 53 66 70 79 89 96 98 56 34 71 100 99 99 100 100 100 100 100
31 34 36 41 49 52 50 59 87 96 86 44 27 26 28 32 29 29 35 31 29 29 30 30 30 34 55 66 70 76 85 93 98 72 31 36 96 100 100 100 100 100 100
35 36 38 45 55 56 58 70 84 94 87 39 29 25 28 29 29 30 35 35 30 28 31 34 35 34 33 45 64 70 76 85 92 98 95 45 29 58 100 99 99 99 97
41 42 44 50 53 59 63 78 85 94 84 42 33 28 28 28 29 31 34 38 34 30 33 37 38 38 39 35 35 49 65 70 78 85 94 99 74 36 27 62 99 100 98
46 48 50 51 55 58 65 75 86 94 80 47 43 33 28 28 31 32 33 39 40 36 35 40 43 41 41 42 41 35 35 54 68 74 81 89 96 96 51 33 26 41 96
57 55 57 52 53 56 60 74 85 92 83 56 53 41 29 28 32 32 33 34 43 44 41 42 46 48 48 46 46 44 38 32 37 60 71 77 84 94 97 85 44 32 25
54 61 65 63 58 53 54 67 85 87 86 69 66 56 33 26 30 33 33 34 39 47 49 50 51 53 55 57 55 51 46 40 30 31 53 69 75 82 89 95 98 65 41
59 73 73 72 66 57 53 62 81 94 94 90 81 79 57 37 27 30 36 37 38 44 51 56 59 60 62 64 62 60 53 47 38 30 32 54 73 77 83 89 96 98 94
68 82 82 79 69 61 58 60 79 94 100 99 99 97 96 93 78 52 36 38 42 44 47 55 62 67 69 73 71 66 60 53 45 34 30 37 65 78 81 87 92 96 99
67 83 90 87 72 63 57 60 73 86 95 99 100 100 100 99 99 100 98 92 68 47 50 53 61 68 80 86 82 77 69 62 54 40 33 34 53 81 86 88 92 95 97
75 86 99 96 82 68 58 54 55 59 69 89 100 100 100 100 98 98 99 98 97 96 69 58 62 71 91 97 97 91 81 73 65 50 37 37 50 75 90 91 92 95 98

GFSGL_700_rhum_030.txt.gz
RH
100 98 93 96 54 39 27 15 12 11 10 8 6 6 8 10 15 46 66 86 51 79 96 98 83 78 63 69 78 84 100 100 100 35 59 80 73 71 60 54 48 45 60
99 92 98 65 45 29 16 13 13 12 9 8 7 8 9 12 22 61 52 62 73 95 93 85 62 27 25 31 36 38 50 50 69 60 62 67 69 68 68 64 65 62 61
94 97 76 52 31 16 14 15 14 11 9 8 9 10 12 18 32 48 56 70 97 94 84 31 21 26 27 26 27 31 43 61 74 78 71 80 80 82 75 81 86 100 86
98 76 64 35 19 14 15 15 13 10 10 10 11 13 15 29 49 66 85 87 90 56 19 21 26 28 28 26 28 40 62 77 83 88 88 89 88 94 100 100 100 100 100
83 81 49 23 14 15 16 15 12 11 12 12 13 17 25 46 59 75 86 68 23 19 21 25 28 27 27 26 33 54 76 86 90 93 94 100 100 100 100 100 100 100 100
93 62 26 14 15 16 16 14 12 12 13 14 21 27 39 51 34 33 24 22 19 20 25 27 27 24 24 27 42 73 90 88 87 99 100 100 100 100 100 100 98 100 100
79 30 14 14 15 16 15 13 13 14 16 20 31 36 53 46 18 18 22 20 20 25 26 26 25 25 26 36 57 86 77 83 82 93 98 100 100 100 100 99 100 99 96
39 14 15 17 16 16 15 13 14 16 21 30 39 47 65 44 18 22 20 20 23 26 27 26 27 29 34 48 74 77 69 74 54 94 100 98 100 97 100 100 100 100 97
15 18 32 18 17 16 14 14 18 21 25 39 43 61 72 38 20 23 21 21 24 27 26 26 31 35 41 57 81 78 62 57 53 99 92 86 92 97 100 100 99 100 100
30 42 20 17 16 13 13 17 23 25 30 44 50 74 70 27 21 26 23 22 25 27 25 26 31 36 45 64 83 89 74 51 60 94 88 88 92 98 100 100 100 100 97
59 22 18 15 11 12 16 25 28 30 35 47 56 75 60 23 22 29 24 25 28 26 24 26 34 40 51 62 84 90 82 52 57 94 91 92 98 99 100 100 100 100 100
34 18 11 9 12 16 21 30 33 35 41 56 63 78 50 22 22 29 26 27 30 24 24 27 33 39 51 59 76 87 90 67 45 97 98 96 96 97 100 100 100 100 100
17 8 9 14 20 25 28 35 40 41 45 65 72 78 43 22 21 27 27 29 29 24 25 26 31 38 49 56 64 81 87 88 40 90 100 99 98 99 98 100 100 100 100
8 10 15 22 25 29 31 43 47 45 54 72 79 77 36 22 23 30 28 30 29 25 25 25 27 34 44 56 63 73 84 91 73 40 99 100 100 99 97 100 100 99 100
10 15 22 25 27 27 40 47 48 49 62 81 84 70 34 24 24 32 30 32 31 26 25 27 27 28 38 57 64 70 78 87 95 59 36 96 100 100 99 98 99 100 99
15 24 29 30 32 35 43 48 52 56 62 82 90 68 36 25 25 31 30 32 34 27 26 28 30 30 30 36 52 62 69 78 89 98 67 31 78 100 100 99 99 100 100
21 31 42 42 40 43 46 51 56 60 64 80 86 68 37 27 25 30 31 30 35 30 27 29 32 32 32 32 33 41 58 67 75 83 97 91 33 45 100 100 98 98 100
31 47 50 47 48 47 48 54 59 61 74 79 83 64 42 30 25 28 31 30 34 36 31 30 33 35 34 34 36 34 33 49 64 71 81 92 98 56 30 87 99 97 97
42 45 55 56 52 55 53 53 56 62 73 82 85 66 46 39 28 27 28 30 33 39 37 33 34 38 39 39 39 37 36 31 34 53 66 76 85 98 85 36 35 93 100
50 51 55 60 57 61 64 57 54 56 69 81 82 68 53 49 33 28 28 30 34 37 42 41 39 41 43 44 45 43 39 36 32 28 39 60 70 79 92 98 55 29 38
64 66 60 53 58 71 73 70 59 54 64 81 83 76 63 60 43 27 27 30 33 35 39 45 46 47 48 50 51 49 45 40 35 32 28 32 55 67 75 86 98 83 40
72 79 76 66 60 77 80 77 64 57 62 80 91 88 78 75 65 42 26 28 33 34 36 42 48 52 55 57 58 57 52 46 39 34 30 27 31 53 67 74 84 94 97
46 68 86 87 70 77 86 81 67 62 66 81 95 98 96 91 92 87 63 35 32 35 38 40 46 52 56 62 66 67 63 56 48 41 34 29 28 32 58 71 77 85 93
32 47 66 78 82 86 98 90 72 64 66 77 92 98 99 100 100 96 96 100 95 80 49 42 47 52 56 61 69 77 78 71 61 52 42 33 30 31 43 68 78 82 89
52 82 94 92 93 100 100 97 91 71 60 64 77 89 100 100 100 100 100 99 99 99 98 98 84 57 57 61 67 88 93 86 76 66 56 44 33 32 40 61 79 83 87
100 100 99 96 100 100 100 99 98 87 65 54 50 49 53 63 80 99 100 100 100 100 100 99 100 99 79 68 71 84 99 96 91 83 73 60 44 35 38 56 76 85 89

GFSGL_700_rhum_036.txt.gz
RH
76 82 84 88 98 100 100 99 95 67 32 18 19 22 17 13 9 7 9 10 12 18 35 59 69 85 93 92 91 94 62 40 27 23 24 22 21 26 43 57 62 61 56
87 87 83 100 100 99 100 98 86 42 18 18 28 19 16 10 8 8 10 12 16 24 43 57 72 90 94 82 42 19 23 24 25 22 19 20 31 53 68 67 62 64 63
87 85 100 100 100 98 100 94 55 19 19 49 23 17 12 8 10 12 16 19 28 39 41 37 42 22 17 16 19 21 21 20 22 23 23 34 61 73 64 62 73 76 88
89 99 100 100 99 99 97 67 17 19 72 39 19 13 8 10 15 17 23 30 40 42 26 19 17 15 14 19 20 21 20 23 26 29 40 65 67 61 53 70 77 81 85
94 100 99 100 98 100 88 34 18 79 71 63 16 10 10 12 16 21 30 42 50 40 20 19 16 16 21 22 21 20 22 26 29 42 67 67 65 50 66 80 87 87 81
99 100 100 98 99 96 78 26 80 91 82 13 11 12 14 19 23 31 39 52 56 35 19 17 17 22 24 20 21 22 26 30 40 68 77 73 55 56 82 84 87 88 79
100 100 99 99 98 86 64 70 92 35 12 10 13 18 21 26 28 37 45 62 57 31 20 19 19 24 23 21 23 29 36 46 60 74 78 68 46 84 88 74 74 78 77
100 99 97 96 97 79 45 94 65 40 10 14 18 22 25 30 30 40 54 71 58 25 23 21 21 26 19 21 22 26 33 45 61 82 83 56 65 85 80 81 85 82 83
100 97 97 95 78 92 96 91 41 11 14 17 20 22 29 39 38 46 62 67 54 22 24 22 25 22 21 21 22 28 35 48 64 79 84 52 79 84 85 86 91 99 89
95 98 96 95 94 93 76 42 28 15 16 19 21 29 42 45 50 62 67 76 41 22 25 24 26 20 19 20 21 28 36 49 59 74 82 51 81 82 82 85 87 87 96
97 96 96 95 92 73 38 20 15 17 22 22 22 29 42 49 46 64 72 72 30 20 25 25 28 19 19 20 22 26 36 46 56 73 82 51 75 84 84 89 98 100 93
96 95 94 92 73 51 44 33 16 22 27 30 29 30 41 49 63 61 79 50 26 22 27 26 29 21 21 21 22 24 31 42 57 67 82 67 50 87 88 87 95 95 96
94 92 94 83 66 59 33 16 18 30 37 37 39 37 44 54 57 63 79 58 28 25 29 26 30 22 23 22 21 21 24 30 39 56 74 88 59 49 90 88 94 95 96
94 89 85 58 36 22 18 19 23 31 37 41 44 44 55 58 68 83 95 65 34 25 32 29 32 26 22 23 22 21 21 23 27 38 56 74 93 60 52 92 88 91 96
53 48 34 24 22 20 20 23 28 35 51 51 53 53 58 66 78 98 99 71 39 27 27 28 30 32 24 25 23 22 22 24 24 26 39 58 73 94 59 58 93 92 94
27 20 21 23 24 25 27 24 28 40 42 50 58 62 65 70 84 98 100 68 38 31 25 28 29 34 30 27 27 25 23 23 24 25 26 34 55 70 93 58 58 93 93
19 21 26 29 30 29 26 22 22 32 57 54 58 69 67 72 86 96 99 60 43 36 28 32 32 34 36 30 31 31 27 25 24 25 25 24 29 52 67 93 60 54 97
24 28 28 26 25 24 29 39 50 59 63 63 61 73 72 70 84 100 97 64 51 42 29 29 33 34 36 37 35 37 37 34 31 27 24 24 24 27 44 65 89 72 40
28 27 27 26 28 40 68 77 67 78 59 68 68 72 80 75 75 100 100 71 58 53 33 28 32 34 35 39 41 41 44 45 43 35 30 25 23 23 26 42 64 85 85
33 32 29 88 100 100 100 86 92 97 91 80 81 79 92 81 72 99 100 86 67 66 45 27 29 34 35 35 41 45 48 51 53 50 38 32 27 23 23 26 40 61 77
38 35 30 41 90 81 72 90 88 94 92 92 91 95 100 92 96 98 100 100 80 78 73 44 30 32 36 37 37 43 47 52 57 62 59 47 39 30 24 24 26 39 57
20 22 24 31 35 38 76 97 89 87 95 92 94 100 100 98 99 99 100 100 94 93 96 94 66 35 34 37 38 40 44 49 54 62 71 70 56 45 34 25 26 27 39
13 15 20 63 93 97 100 93 97 100 92 92 100 100 99 99 98 99 99 99 100 99 100 99 98 97 90 75 52 44 45 48 51 58 67 81 77 64 51 36 27 27 29
10 12 13 23 89 81 92 93 100 99 90 99 100 100 99 98 99 99 100 100 99 99 100 100 100 99 100 100 99 100 98 78 58 57 62 76 89 83 71 56 38 29 30
16 16 19 77 86 80 87 100 100 96 92 100 100 100 100 100 98 99 99 100 100 100 100 100 100 100 100 100 100 98 100 100 98 86 69 70 91 95 84 74 60 40 31
17 22 100 100 95 100 100 100 100 99 95 91 100 100 100 100 100 100 100 94 59 55 52 54 59 75 95 100 100 99 98 100 100 99 94 91 88 100 95 85 76 61 41

GFSGL_700_rhum_039.txt.gz
RH
74 74 76 83 94 99 100 99 100 99 97 96 94 35 37 29 24 12 7 8 10 12 13 16 26 42 51 56 58 71 83 74 27 18 20 20 20 20 21 23 36 58 62
92 86 81 88 100 100 99 98 100 98 98 80 17 52 46 47 31 8 8 10 12 15 18 24 35 38 29 20 16 16 16 20 22 20 17 18 19 22 33 53 63 57 51
96 97 100 100 100 97 99 99 99 98 86 19 61 74 84 51 9 8 9 13 16 20 26 36 38 32 17 14 14 17 21 21 19 19 20 22 26 44 63 64 60 48 56
91 100 100 100 100 99 98 97 97 95 67 81 90 84 26 17 10 12 14 16 21 26 36 49 41 26 16 14 14 20 20 17 19 22 23 26 38 65 70 60 48 63 63
98 97 100 100 98 93 99 97 96 94 77 91 63 61 48 12 13 20 20 23 31 35 48 53 32 20 16 14 21 20 16 18 19 22 23 28 56 71 62 49 63 62 55
100 100 99 98 99 99 100 99 97 89 95 94 92 40 27 21 20 28 29 36 47 47 59 54 29 19 16 19 22 16 18 19 21 25 29 43 62 72 50 64 70 66 53
98 100 99 98 96 99 98 96 96 95 95 88 83 80 28 16 20 32 36 45 56 61 68 57 30 18 18 25 19 18 20 28 37 44 46 60 72 67 56 74 73 78 74
99 99 99 99 100 97 97 95 94 95 92 81 59 29 22 20 26 37 42 51 64 77 76 55 27 19 21 24 17 18 19 24 33 44 54 70 80 57 76 80 70 64 70
99 100 99 100 99 98 95 93 92 93 88 71 50 24 25 27 30 43 48 52 78 89 78 51 22 24 24 22 17 18 19 24 37 52 64 80 80 55 86 80 69 68 67
96 98 99 99 96 94 95 93 88 84 63 30 25 29 32 32 42 52 56 64 79 78 74 40 22 25 28 21 18 18 18 20 30 45 60 81 78 54 88 86 70 74 70
98 99 97 95 95 95 89 73 62 42 22 23 32 36 38 38 45 52 56 65 80 81 62 28 24 25 29 22 19 17 18 20 25 33 52 63 80 54 68 92 83 78 75
98 96 93 89 64 37 47 51 36 20 19 20 23 34 41 43 46 52 60 69 85 88 56 30 26 27 29 24 20 20 20 20 22 26 37 53 71 82 47 79 93 89 96
78 60 36 27 37 48 37 23 21 23 24 24 28 36 45 50 51 54 61 71 82 88 66 34 28 31 30 29 24 22 21 19 21 23 25 39 53 73 84 47 84 92 89
20 17 22 36 37 26 22 28 29 28 26 25 27 40 48 52 60 59 60 71 88 94 89 39 30 30 32 34 25 24 21 19 18 20 22 24 34 57 77 80 47 86 93
13 17 18 18 18 20 26 30 31 33 37 31 34 46 53 50 64 65 68 78 90 95 94 49 32 31 33 33 30 26 25 23 20 19 19 21 24 31 55 79 72 52 89
15 17 18 20 24 29 29 26 30 32 43 53 51 48 56 63 68 79 76 83 96 95 86 51 37 30 31 31 34 30 30 30 26 22 20 19 20 22 31 55 86 60 64
21 23 25 27 28 29 30 29 28 33 44 62 61 66 74 75 72 84 85 90 100 98 83 52 43 32 32 31 34 36 33 36 35 30 25 22 19 19 22 31 54 87 56
27 29 31 33 36 37 36 47 79 82 90 79 80 89 77 87 85 90 88 100 92 99 83 57 51 33 30 33 36 38 38 39 42 42 37 30 25 20 19 23 30 54 86
29 28 29 27 26 30 48 80 84 90 99 90 80 80 91 80 85 100 99 99 95 100 90 64 61 35 29 31 36 38 42 44 47 51 53 46 36 29 23 20 23 31 57
12 11 12 13 14 18 26 42 76 87 94 85 81 85 87 86 86 95 100 100 99 100 99 77 74 47 29 28 34 37 39 45 49 53 58 61 54 40 35 25 21 24 34
10 9 8 7 7 8 15 54 80 85 83 99 100 84 95 96 100 98 97 100 99 99 100 96 94 86 53 32 30 34 37 40 46 51 56 62 69 64 50 39 26 22 25
8 6 7 9 11 12 12 22 96 100 97 98 93 94 91 98 100 100 98 96 100 100 99 98 98 99 98 69 40 35 37 40 44 49 53 58 66 78 72 56 42 27 24
8 10 12 13 14 14 15 25 99 100 89 90 100 88 90 100 100 100 97 100 100 98 100 100 100 98 100 100 100 98 96 89 68 54 55 57 60 73 84 75 62 44 28
12 12 12 12 14 28 74 81 74 93 98 90 99 84 82 98 100 100 100 97 100 100 100 100 100 99 100 99 100 100 100 100 100 100 99 82 64 65 80 88 78 66 45
12 11 12 14 18 40 100 98 94 100 100 100 100 97 90 87 99 100 100 99 100 100 100 99 100 100 100 100 100 100 100 99 98 99 100 100 100 81 76 93 92 78 67
12 14 15 16 20 30 71 100 100 100 100 100 100 98 87 84 89 99 100 100 100 96 100 99 81 62 66 78 92 100 100 100 100 100 100 100 100 100 97 94 98 90 80

GFSGL_700_rhum_042.txt.gz
RH
65 73 74 78 88 100 100 100 97 91 97 100 99 98 99 55 29 62 91 33 11 11 12 14 16 18 21 29 34 24 17 17 14 13 16 18 17 15 16 18 18 20 28
76 78 86 85 91 100 99 97 99 96 96 97 100 99 87 60 83 74 34 43 15 15 15 19 21 22 29 39 30 18 16 16 20 20 19 14 16 18 20 20 26 43 58
88 100 100 99 98 97 97 99 89 94 96 98 96 95 88 89 73 64 48 55 22 17 22 26 27 32 42 40 25 17 16 21 22 17 14 17 18 22 22 30 54 65 59
86 92 94 98 98 99 100 100 96 93 96 98 98 94 76 92 89 71 89 43 23 27 30 35 36 42 50 37 22 18 19 22 17 15 16 18 21 27 36 49 60 56 52
81 70 78 92 100 99 98 95 98 100 100 99 97 92 94 93 92 83 52 27 25 34 40 47 48 57 58 31 21 19 22 18 15 14 15 19 26 34 48 66 62 52 60
68 85 90 95 80 89 95 95 100 100 100 98 94 92 94 93 93 67 25 30 38 50 59 60 63 69 59 27 24 21 23 15 13 14 19 27 33 48 61 68 55 63 50
79 88 100 98 97 99 96 99 100 99 96 94 92 92 89 80 37 24 29 40 46 51 59 65 70 70 59 26 23 24 21 17 15 19 24 35 39 58 69 64 63 69 59
72 88 99 100 96 86 100 98 95 94 92 91 76 60 40 24 25 30 34 41 47 56 55 64 77 81 50 25 23 26 20 18 18 21 28 35 47 64 74 60 66 66 60
87 91 91 94 98 98 96 95 91 75 58 47 42 32 19 19 26 35 38 41 51 60 60 66 80 76 36 24 25 27 19 18 19 22 26 37 49 67 78 58 68 72 59
92 97 100 100 98 94 71 54 29 32 36 37 26 19 19 21 28 38 44 47 51 60 66 77 84 60 30 26 26 28 19 18 18 21 24 33 47 62 82 65 54 77 66
99 99 96 89 76 58 32 29 26 31 32 24 21 21 21 21 23 34 45 48 52 61 68 90 90 67 33 28 28 30 21 18 18 18 20 22 30 47 68 85 53 61 78
96 89 67 58 41 33 25 18 24 25 22 23 23 22 22 22 24 31 46 55 59 64 75 94 98 76 39 30 31 30 22 20 18 19 19 20 21 28 47 74 86 52 75
73 62 43 28 16 13 12 16 18 20 21 24 26 23 22 24 27 33 48 57 66 71 88 98 100 96 47 31 31 32 27 25 23 21 19 18 19 21 24 46 85 72 54
48 24 13 11 11 13 15 16 18 22 26 27 26 25 26 28 32 40 48 57 75 97 93 95 100 100 64 37 33 36 33 27 27 23 20 17 17 19 21 30 52 81 56
11 11 11 12 15 17 19 21 25 27 30 31 31 38 49 46 50 44 45 62 76 91 95 98 96 99 66 40 33 36 36 30 31 28 25 20 18 18 20 21 36 64 77
11 13 14 15 17 20 23 22 27 35 35 38 55 88 84 88 79 64 52 62 80 100 95 88 95 100 56 46 34 34 37 34 34 35 34 27 23 20 19 19 22 40 76
12 13 14 13 12 12 12 13 12 11 19 38 88 99 100 96 92 80 73 72 83 100 96 89 99 100 57 50 34 34 39 38 36 38 42 39 33 27 24 20 19 26 48
16 16 13 11 11 10 10 9 9 9 11 16 39 95 100 99 99 91 87 81 81 98 98 100 100 98 63 58 37 32 40 39 40 41 46 49 48 42 34 27 19 21 28
14 11 10 10 10 8 7 7 7 8 9 38 85 89 99 100 100 94 93 85 94 99 100 100 100 100 77 69 40 31 38 40 42 44 48 53 57 60 49 36 27 19 22
10 11 10 9 7 6 7 8 10 11 12 53 64 86 88 97 98 96 92 93 100 100 100 100 99 100 97 87 48 31 35 40 41 45 49 54 59 66 69 52 40 26 21
11 10 8 6 8 9 10 11 11 12 13 19 85 100 99 90 80 76 83 93 100 100 100 99 100 100 99 97 79 38 32 39 42 42 47 51 55 60 71 72 58 42 26
9 7 7 9 10 10 10 11 12 14 17 91 100 100 90 83 91 83 89 96 99 100 99 100 99 100 100 100 99 83 40 36 39 41 46 49 52 57 61 74 76 62 45
7 9 12 11 10 10 11 14 19 53 69 73 73 100 81 93 94 76 98 96 90 92 99 100 100 99 99 99 100 97 92 90 84 76 65 61 60 57 60 63 79 76 65
11 13 12 11 12 14 15 17 23 93 100 99 100 100 87 100 99 86 79 87 100 96 92 97 100 98 100 99 99 99 99 100 100 100 99 99 98 96 78 69 72 83 75
15 14 14 16 19 22 26 28 30 40 97 100 100 100 100 100 100 88 85 81 96 100 97 99 99 100 100 100 99 99 100 100 100 100 100 100 100 100 100 98 84 85 88
15 16 20 27 34 39 43 42 50 68 95 97 100 100 100 100 100 100 94 83 78 96 100 100 100 98 98 99 100 99 100 100 100 100 100 100 100 100 100 100 100 97 97

GFSGL_700_rhum_045.txt.gz
RH
48 60 55 60 66 88 97 93 88 98 82 99 96 92 100 100 100 100 95 90 94 92 79 48 39 25 18 19 24 33 40 33 25 19 15 12 17 16 12 13 15 15 16
63 67 74 82 88 91 73 80 73 93 99 91 84 94 100 100 100 98 95 82 90 75 78 62 32 22 26 33 38 46 42 28 19 15 12 17 13 13 14 14 16 16 18
86 82 82 84 72 70 74 73 99 98 91 99 100 100 100 99 97 94 94 97 88 85 67 67 40 33 38 42 49 55 44 26 18 14 18 14 12 15 16 18 20 23 36
85 89 94 70 66 80 89 91 89 99 100 98 98 99 98 96 91 95 91 87 79 75 57 31 37 47 52 54 61 65 44 23 18 21 16 13 14 16 19 22 24 41 58
92 91 84 66 83 96 100 98 99 83 93 97 98 97 95 96 94 86 86 71 41 26 24 28 35 91 57 57 63 70 40 22 20 22 14 13 14 16 21 29 43 55 58
91 79 75 85 99 99 100 100 98 98 99 98 95 94 93 77 83 68 43 24 20 22 27 34 45 56 58 65 75 76 33 24 24 18 14 14 14 17 23 35 55 64 55
69 69 79 100 100 99 100 100 100 98 95 95 82 56 56 62 43 31 19 15 17 24 32 40 50 55 59 65 80 79 29 25 25 17 14 15 15 18 22 34 65 64 62
69 77 87 92 93 100 100 100 98 96 93 51 35 40 34 31 26 16 16 16 17 22 33 40 47 56 60 68 82 54 28 28 26 19 16 15 16 18 23 34 57 66 60
80 85 85 95 100 100 100 96 96 79 55 26 24 18 19 17 15 17 18 18 18 22 35 44 47 57 68 82 72 36 28 31 27 21 18 15 15 18 21 29 50 69 58
95 99 100 100 98 96 96 90 54 42 22 10 12 14 14 15 18 19 20 21 22 25 31 44 51 60 73 90 81 38 28 32 28 22 20 16 15 18 22 31 43 62 74
100 99 98 97 96 90 67 48 27 11 10 12 10 12 16 18 20 22 23 24 26 31 36 51 62 68 79 96 89 45 32 32 31 24 21 17 16 16 19 23 41 52 77
98 87 86 84 72 60 38 12 10 11 10 11 13 15 19 22 24 25 27 30 34 34 39 57 72 80 93 100 100 60 32 33 34 26 23 20 16 15 16 19 26 39 78
86 77 68 64 47 19 9 10 10 12 13 14 17 19 20 26 30 32 36 47 49 41 47 65 82 98 98 100 100 94 40 34 35 29 26 24 20 17 15 14 18 30 65
68 62 45 17 10 10 10 10 11 12 14 16 18 22 28 29 34 42 72 79 77 61 52 72 83 99 100 92 100 100 49 36 36 35 30 29 25 21 17 14 14 18 31
29 13 11 11 10 10 11 12 11 10 12 13 12 15 20 21 32 82 100 100 100 84 60 61 82 100 100 100 100 100 54 39 38 40 32 33 31 27 21 20 16 16 22
11 10 10 10 10 12 12 12 10 10 10 10 10 13 13 24 85 99 95 100 98 95 79 66 92 100 100 100 100 89 54 44 42 42 35 35 37 38 30 25 24 17 17
10 10 11 13 14 13 11 10 9 8 7 6 6 7 9 14 37 91 99 98 96 96 83 79 75 100 100 100 100 89 61 45 41 40 38 37 41 46 44 34 31 24 19
14 16 17 16 12 11 10 9 8 7 6 6 6 7 9 13 74 96 99 99 100 96 98 87 80 100 100 100 100 96 78 45 37 43 41 40 43 50 54 52 41 34 21
19 19 16 12 10 10 8 7 7 8 8 9 8 9 12 20 74 88 92 98 94 95 99 98 94 100 100 99 100 99 90 45 35 42 42 43 46 51 58 64 63 46 32
19 14 11 10 9 7 7 8 9 9 8 9 10 14 17 37 85 98 98 90 98 93 94 100 100 100 100 100 100 98 96 50 34 41 44 44 47 50 55 65 72 67 46
11 10 9 8 6 7 10 10 10 9 10 11 15 36 78 93 100 100 80 77 82 91 98 100 100 99 100 100 100 98 98 84 35 40 43 44 45 48 52 58 67 77 66
10 9 7 6 8 11 11 10 12 14 16 17 23 72 98 85 99 99 90 82 82 100 100 100 92 95 100 100 100 100 100 98 60 38 42 43 42 45 48 54 58 72 78
8 7 6 10 13 12 12 15 20 25 28 28 31 91 100 100 100 100 100 100 84 95 82 95 99 98 100 100 99 100 100 100 97 67 45 43 45 48 54 57 59 64 75
7 7 10 13 12 13 16 23 31 37 37 34 40 53 100 100 100 100 100 100 100 88 76 96 100 95 98 100 100 100 100 100 100 100 99 99 99 98 96 98 88 77 73
8 11 15 14 14 17 24 34 40 45 48 44 60 76 86 90 100 100 100 100 100 100 91 90 95 97 96 100 100 98 99 100 100 100 100 100 100 100 99 99 99 98 93
11 16 16 16 20 28 36 42 47 50 54 58 56 70 85 91 100 98 100 100 100 100 97 88 84 91 98 100 100 100 100 100 100 100 100 100 100 100 100 100 99 100 100

GFSGL_700_rhum_048.txt.gz
RH
52 54 52 51 60 67 89 93 86 86 78 81 93 99 92 97 98 100 90 98 87 80 85 82 78 82 66 56 45 30 28 34 33 36 38 30 18 15 19 13 11 10 12
57 60 73 82 93 95 95 69 73 84 77 79 98 79 91 99 96 93 96 89 87 84 73 77 81 73 44 23 26 34 41 44 44 41 44 29 16 20 14 11 12 15 16
74 75 78 82 89 97 70 65 80 90 99 99 97 98 100 98 98 93 90 88 74 63 78 72 28 22 21 25 34 48 47 53 57 54 48 22 17 17 11 12 13 18 25
73 82 84 84 98 96 69 82 96 92 99 94 97 98 99 94 94 93 86 62 64 60 33 24 18 17 23 31 36 49 54 58 64 63 41 18 20 14 12 10 12 20 26
75 80 83 88 98 72 80 85 100 92 92 89 91 99 95 94 62 53 54 44 39 28 19 15 16 18 26 33 42 54 55 63 78 71 31 20 20 13 11 11 13 18 31
86 69 66 67 72 86 90 99 100 100 99 100 98 95 91 50 40 33 29 30 22 16 15 17 18 19 25 34 45 53 57 68 80 66 25 23 18 14 10 12 14 19 28
44 46 58 72 88 93 100 96 98 98 99 97 96 69 42 32 25 21 19 18 15 15 17 18 20 24 30 41 49 55 63 74 75 39 24 25 18 14 10 10 14 17 33
60 72 89 98 100 99 99 99 99 98 96 96 60 35 27 18 15 18 17 16 18 18 19 21 23 28 36 48 54 60 71 77 61 32 25 26 19 14 12 11 11 13 22
84 92 100 100 100 100 100 99 96 96 89 55 36 26 15 11 14 14 15 17 20 22 24 25 28 31 45 62 60 70 80 88 60 32 29 28 21 17 13 11 11 10 15
99 100 100 100 99 98 96 97 95 73 56 30 12 12 10 10 13 15 18 22 24 27 27 30 35 38 50 62 70 83 85 98 68 35 34 31 24 18 15 13 12 10 14
100 100 89 100 98 99 93 81 66 56 25 10 8 8 9 11 12 17 23 27 30 32 33 34 45 52 54 70 91 90 96 97 80 38 36 34 27 22 18 16 15 13 14
98 95 100 100 92 76 66 57 27 9 8 7 7 8 10 11 17 19 25 34 38 40 39 47 66 61 58 88 99 97 99 97 98 58 36 38 29 26 23 18 17 16 15
96 95 88 73 62 46 20 8 8 8 8 10 11 11 11 10 10 12 23 31 41 47 52 84 94 87 57 73 96 100 100 98 95 85 38 40 33 29 28 22 21 18 16
77 67 50 26 11 10 9 9 10 12 13 13 12 11 10 9 8 8 8 15 38 63 84 100 98 96 71 64 96 100 100 99 96 92 42 40 37 32 33 29 26 22 19
37 15 12 10 9 9 10 12 14 15 13 12 10 9 8 7 7 6 7 7 12 94 100 87 99 98 86 64 86 99 100 100 95 92 50 41 41 35 38 38 34 27 25
14 11 10 10 12 12 14 16 17 14 9 8 8 7 6 8 8 8 9 11 15 57 100 97 98 95 86 73 98 100 98 99 99 90 58 40 43 38 39 44 45 36 30
13 14 14 15 16 19 20 15 8 6 6 6 6 6 7 8 8 9 11 19 52 91 100 100 100 97 95 81 80 100 99 100 99 91 62 43 47 40 39 46 53 50 37
18 18 19 21 22 14 8 8 7 6 6 5 5 6 7 7 8 9 13 93 84 89 90 99 100 97 90 89 98 100 100 100 97 95 73 42 45 42 41 48 57 61 54
22 23 24 19 10 9 8 7 6 5 6 6 6 6 6 7 10 22 44 66 89 100 93 79 82 93 96 95 100 100 100 100 100 98 68 38 44 43 43 49 58 62 64
27 26 16 10 9 8 8 6 6 6 7 7 8 10 10 10 13 38 98 100 100 98 83 80 85 96 89 100 100 100 100 100 99 99 64 37 43 43 45 50 55 57 62
27 14 10 10 9 8 7 6 7 8 8 10 16 22 24 22 23 79 100 100 100 100 88 79 86 98 100 98 98 100 100 100 99 100 83 38 40 43 45 48 52 55 57
14 11 10 10 9 8 7 9 9 10 13 18 24 31 30 28 32 65 100 100 100 100 92 98 100 100 100 94 100 100 100 99 100 100 99 46 40 43 43 45 49 52 56
11 11 10 10 8 8 11 11 12 15 21 30 34 36 39 38 52 55 92 100 100 100 100 100 100 93 100 99 100 100 99 100 100 100 100 75 42 41 43 46 50 57 60
11 11 10 9 8 11 13 13 15 22 32 39 43 44 49 48 51 68 72 78 99 100 100 100 100 93 87 100 100 98 100 98 100 100 100 99 92 70 80 85 95 97 92
11 10 9 9 11 14 14 15 20 29 40 44 46 44 42 54 56 60 76 95 90 97 100 100 100 97 88 86 91 98 100 100 98 99 100 99 99 100 100 100 100 100 100
10 10 10 12 16 17 16 19 23 28 31 32 33 33 33 34 49 62 66 80 93 97 99 100 100 100 87 77 92 100 100 100 100 100 100 100 100 99 100 100 100 99 100

GFSGL_700_rhum_051.txt.gz
RH
83 74 64 66 65 67 82 84 90 99 96 98 99 95 95 91 98 91 95 99 93 70 56 52 43 42 49 31 21 16 17 21 22 25 32 40 47 49 40 22 18 15 9
64 70 72 73 83 90 98 98 100 97 94 92 91 100 92 99 83 99 96 95 61 47 42 28 40 32 20 15 15 16 17 23 30 31 44 48 52 54 32 19 18 12 9
54 55 68 77 92 95 98 99 99 92 76 64 99 92 99 98 99 100 92 53 33 33 30 32 22 18 14 15 17 17 20 28 34 38 45 54 59 56 26 20 15 12 11
51 54 64 72 84 89 94 98 98 79 90 80 95 88 89 98 98 93 54 30 32 32 25 18 16 14 16 18 18 20 28 32 39 46 50 59 68 49 22 21 14 12 11
55 60 74 87 85 80 84 88 81 100 91 93 94 98 99 99 96 56 33 24 21 16 13 15 15 16 18 19 22 25 30 36 47 52 55 66 71 36 24 20 13 10 10
58 64 84 84 47 56 71 93 100 82 95 94 99 98 95 96 91 38 23 16 13 12 14 16 18 19 21 22 24 28 43 48 50 56 63 70 55 30 25 20 13 10 9
42 49 48 52 58 79 95 98 98 96 99 99 97 95 96 76 41 25 17 13 12 14 16 18 20 23 27 27 28 33 39 49 56 65 69 76 56 30 26 20 14 11 10
55 58 62 69 86 98 88 96 92 90 98 93 97 94 56 33 18 15 13 12 13 15 17 20 25 28 30 35 36 39 44 53 62 72 81 82 51 30 28 21 16 12 11
52 61 74 93 100 93 87 100 99 93 96 94 74 50 17 11 11 12 12 13 14 16 20 26 30 32 38 42 40 46 50 52 77 83 85 85 51 32 30 24 18 14 12
60 64 72 92 94 88 99 100 98 93 79 56 21 9 8 8 10 12 14 15 14 15 16 20 28 41 44 47 57 59 56 66 99 93 95 89 56 34 32 26 21 16 14
71 85 88 90 85 98 98 90 69 50 18 8 7 7 9 11 12 12 11 11 11 11 11 12 20 43 53 67 81 72 57 92 100 98 96 92 83 39 37 29 25 20 17
92 90 88 89 87 74 58 34 12 7 7 7 8 9 13 15 15 13 11 9 9 8 8 8 12 35 68 97 99 94 75 100 97 94 96 93 97 50 40 33 29 26 22
79 68 73 64 46 20 11 8 8 8 9 11 14 17 18 14 8 6 6 6 7 7 8 9 28 84 68 100 100 100 97 87 100 100 100 97 97 70 43 37 32 31 28
70 63 46 20 14 10 9 10 12 14 16 19 18 12 8 6 6 6 5 5 6 6 8 10 13 68 100 100 74 98 94 87 100 100 100 100 98 87 45 40 34 36 36
58 30 20 12 11 12 14 14 17 20 18 10 7 7 6 6 6 5 5 6 6 7 9 18 20 20 97 86 86 97 76 90 100 99 100 100 99 93 48 42 36 40 43
25 17 15 16 16 15 16 21 22 13 8 7 7 7 7 6 5 5 5 5 6 8 10 23 42 81 90 100 99 94 79 74 100 98 97 98 99 98 53 45 39 43 49
19 19 20 18 18 20 24 25 14 8 8 8 8 8 6 5 6 6 6 6 9 15 48 89 67 96 99 97 100 94 88 83 99 99 100 100 100 96 52 48 41 45 54
24 23 21 22 24 28 24 11 8 9 9 10 9 8 6 6 8 10 10 12 19 54 82 95 100 98 90 98 96 99 100 99 100 100 100 99 99 99 49 50 43 48 57
25 25 27 29 31 20 10 9 10 10 11 11 9 7 6 7 10 16 16 17 33 100 100 100 100 99 80 77 85 94 97 98 100 100 100 98 100 96 47 52 44 49 58
29 31 33 33 19 11 10 11 12 12 11 9 8 7 7 9 12 15 18 17 24 85 100 100 100 96 83 89 98 92 100 97 100 100 99 100 100 87 47 51 45 50 57
36 38 38 21 12 11 12 12 12 11 9 8 9 11 15 20 22 24 25 25 23 59 99 100 100 100 92 98 100 100 97 91 96 100 99 100 100 84 48 50 46 50 55
43 44 25 13 12 12 12 12 11 10 9 10 11 16 24 31 32 31 32 33 39 44 90 96 99 100 100 100 100 100 98 100 100 100 100 100 100 95 49 47 46 49 52
50 26 14 12 12 12 12 11 10 11 12 13 16 19 24 31 35 33 29 36 42 52 66 93 97 97 100 100 100 100 100 98 99 100 100 100 100 99 58 49 49 49 52
31 17 13 13 12 12 11 11 12 14 14 17 20 22 23 26 27 28 29 30 47 55 71 82 99 95 98 100 100 93 100 100 94 100 100 99 100 100 80 51 51 53 72
26 16 13 12 11 11 12 13 16 16 18 22 25 25 24 24 22 22 24 30 41 55 67 90 92 98 100 98 93 92 87 88 95 100 100 96 100 100 100 97 98 99 100
26 16 12 12 11 12 13 17 19 19 20 27 27 26 24 20 20 28 30 26 31 59 69 75 89 98 100 100 100 93 78 96 100 100 100 98 97 99 100 100 100 100 100

GFSGL_700_rhum_057.txt.gz
RH
79 76 81 79 82 95 92 67 70 73 73 82 91 99 100 99 92 95 98 85 100 100 98 98 97 96 93 59 33 25 14 11 10 8 42 75 89 100 90 72 31 28 26
68 72 75 78 65 59 66 73 80 83 90 97 98 100 100 98 99 98 94 76 100 98 99 98 93 90 68 42 32 17 10 10 26 26 26 66 97 95 94 98 75 49 35
68 65 44 36 54 55 57 61 66 81 89 97 100 99 100 90 88 98 99 87 89 100 97 94 89 52 44 30 13 12 15 44 74 95 88 89 97 100 99 100 98 69 66
28 38 51 55 51 48 51 53 67 79 94 98 100 100 97 93 100 92 99 100 100 97 94 58 30 29 18 11 11 14 17 26 52 77 91 81 98 94 100 100 94 100 100
44 44 46 46 46 44 49 73 88 86 99 98 98 99 98 99 97 92 100 98 91 84 45 12 10 8 8 8 11 13 18 22 30 41 57 71 74 90 96 100 98 100 100
51 55 56 60 57 57 75 76 91 95 65 62 71 90 95 100 95 100 93 85 68 33 8 6 7 9 10 12 14 14 16 20 26 35 50 69 81 87 100 95 99 100 92
57 64 48 29 31 36 46 52 57 57 60 63 66 72 99 95 87 85 74 50 18 6 6 8 11 14 15 14 13 14 16 24 60 60 80 76 84 86 100 86 100 100 97
32 28 25 26 34 39 43 47 48 50 53 59 58 74 86 83 73 43 16 7 6 7 11 17 16 10 7 7 8 9 14 70 85 84 85 87 96 99 88 99 98 94 92
24 23 27 32 38 37 38 43 50 55 46 44 49 58 58 27 14 7 7 9 13 18 16 9 7 7 7 6 6 6 9 62 66 82 100 95 90 97 97 100 98 100 83
25 30 34 34 36 43 49 48 40 36 37 39 35 20 10 8 9 11 14 19 18 11 10 10 9 8 7 7 6 5 46 69 69 74 92 93 96 90 92 98 100 88 89
32 35 37 38 43 50 46 40 37 36 29 19 12 11 13 13 14 18 21 13 10 11 11 10 8 7 7 7 5 5 6 22 42 71 85 97 92 89 88 88 100 98 88
40 43 45 48 54 50 44 41 34 24 16 16 18 16 14 17 22 22 14 11 11 12 10 7 6 5 4 4 4 5 6 9 23 77 77 77 96 96 100 95 88 90 80
50 54 56 61 56 50 44 32 24 18 21 22 16 16 21 24 20 16 11 12 11 9 8 6 4 3 4 4 5 6 14 17 15 46 99 92 100 81 99 99 100 100 98
65 66 70 65 57 47 34 24 21 24 23 17 18 24 26 20 14 12 13 12 10 8 7 4 4 5 6 41 67 83 96 66 22 42 90 100 96 99 100 95 100 100 100
75 80 76 64 52 37 27 25 28 25 19 21 26 29 23 14 12 13 13 12 10 8 5 4 5 6 7 24 85 93 99 100 74 78 89 99 100 87 91 99 100 100 100
87 87 74 59 40 29 28 31 25 21 24 30 32 27 17 14 13 14 13 13 10 6 5 5 6 7 8 12 67 88 100 98 94 100 100 100 99 88 82 93 99 98 98
97 85 65 41 31 31 32 27 23 26 33 36 30 20 15 14 14 14 14 12 8 6 6 8 9 9 9 19 73 99 100 99 100 96 96 94 83 89 96 100 100 100 97
96 72 38 32 42 39 31 27 31 37 40 34 29 20 16 15 15 15 15 11 6 6 8 11 12 12 13 14 72 84 97 97 100 98 86 82 82 86 97 100 98 98 99
79 39 54 64 47 31 30 35 41 43 36 28 23 19 18 16 16 16 14 9 6 8 10 15 16 16 17 17 33 94 98 91 97 81 80 90 100 97 100 100 100 100 100
60 90 94 70 36 38 41 47 47 39 33 28 24 21 17 16 16 15 11 8 8 8 11 16 18 18 19 22 26 78 97 100 100 99 100 100 100 100 99 100 100 100 100
97 96 71 56 46 48 52 49 43 38 36 32 26 21 17 16 15 13 9 9 9 11 15 15 14 17 21 27 29 66 100 100 100 100 100 94 98 100 100 100 100 100 100
96 94 88 66 58 58 52 47 44 42 40 35 27 20 17 16 13 11 10 11 12 16 17 15 16 27 25 29 35 54 95 100 100 100 100 100 100 100 100 100 100 100 100
95 92 87 75 64 58 55 53 52 50 44 36 27 20 16 14 12 12 14 14 16 19 18 18 23 39 30 32 45 48 86 97 100 100 100 100 100 100 100 100 100 100 100
90 91 88 76 67 64 63 63 61 56 47 35 25 18 15 14 14 16 17 17 21 22 20 25 38 47 41 32 52 59 85 100 98 100 100 100 100 100 100 100 100 100 100
91 93 95 94 89 84 81 79 73 65 50 34 22 17 16 16 18 21 20 22 24 23 29 43 49 53 50 35 57 62 82 100 100 100 99 91 88 91 100 100 100 100 100
95 97 97 97 97 96 93 88 82 74 53 30 21 18 19 22 25 25 24 27 26 26 47 53 57 60 53 38 59 69 72 99 100 100 96 89 86 85 100 100 100 100 100

GFSGL_700_rhum_060.txt.gz
RH
62 69 74 87 90 93 82 75 78 72 74 73 76 82 93 82 100 95 99 100 99 99 99 86 100 100 96 93 94 63 38 45 25 8 8 8 13 24 45 76 92 83 71
80 69 74 78 80 76 77 57 62 63 61 62 66 78 89 96 99 99 97 99 98 99 98 99 97 100 98 87 30 21 24 16 16 8 8 10 16 42 74 76 93 100 94
63 71 70 69 67 58 44 55 54 54 53 56 74 89 100 98 100 99 100 100 99 99 98 99 98 96 80 31 12 10 9 9 14 52 42 52 57 63 90 100 96 91 93
45 50 60 52 43 53 56 52 50 48 56 83 92 92 94 99 99 96 100 100 100 94 100 99 91 58 20 7 7 8 10 13 19 53 51 55 54 49 60 95 93 96 93
39 39 46 54 51 49 49 52 53 60 82 96 91 68 96 93 97 97 100 100 97 97 97 78 41 8 6 7 10 15 16 16 14 15 15 22 40 58 62 76 89 96 94
36 48 56 51 50 55 63 70 50 38 39 49 61 62 66 72 83 80 100 99 91 80 53 13 6 7 11 17 17 11 9 10 9 22 40 72 66 90 78 98 98 97 92
44 62 54 53 61 66 40 27 27 35 45 51 52 52 54 56 62 94 95 77 52 16 8 8 10 16 18 12 10 10 10 8 7 7 40 44 70 94 100 98 98 98 99
52 55 58 54 35 27 24 28 34 35 36 40 48 54 48 42 50 61 45 18 11 10 11 14 19 17 12 12 12 11 9 7 8 7 26 42 59 83 98 98 98 97 93
57 45 32 28 24 26 31 31 31 34 42 47 44 39 32 29 23 18 15 17 14 12 19 20 16 15 15 12 9 7 6 5 4 5 6 19 88 95 90 99 96 98 84
32 31 26 25 28 30 30 33 37 45 46 39 33 30 27 22 20 20 17 13 17 21 21 17 16 16 13 8 6 6 4 3 3 4 4 7 66 95 100 99 99 93 89
32 28 27 29 32 35 36 38 44 46 42 36 32 26 20 23 26 16 15 22 24 21 18 19 18 15 8 7 5 3 3 3 4 5 5 6 9 69 97 96 97 94 91
30 28 30 35 39 43 45 47 48 46 40 34 26 22 27 26 16 17 25 26 23 21 21 18 16 9 7 6 3 3 4 8 14 13 15 13 10 32 90 93 90 88 89
30 33 40 46 51 54 56 55 51 44 35 26 24 29 26 18 20 26 28 25 22 20 18 17 11 8 7 4 3 4 5 25 76 93 88 44 15 24 62 94 99 78 82
39 45 52 58 65 68 66 59 50 36 25 25 30 24 20 24 28 31 28 25 20 19 18 14 10 10 6 3 4 5 5 39 98 100 93 50 52 75 98 95 93 93 89
54 61 69 76 80 81 72 59 40 28 29 34 29 22 25 31 33 30 24 23 21 19 15 12 12 10 5 4 5 6 7 24 82 98 95 87 85 85 99 95 84 73 74
71 77 87 91 90 87 72 50 33 30 35 29 25 29 34 37 31 27 24 21 19 15 14 14 14 8 4 5 6 7 8 31 92 100 100 89 100 100 100 100 95 82 89
86 98 100 100 98 86 60 36 35 48 34 28 32 39 39 34 31 28 26 19 16 15 15 15 10 6 6 7 10 10 10 22 90 100 100 100 100 98 91 91 97 98 87
100 100 98 98 93 65 39 42 63 43 32 36 41 42 36 32 30 28 26 21 16 16 16 12 8 7 8 11 12 11 14 15 43 96 100 99 99 98 88 86 95 90 98
100 99 98 96 86 77 90 91 64 56 46 47 44 38 32 32 33 32 29 23 18 16 15 11 8 8 11 12 12 13 17 18 35 86 100 100 98 88 88 97 94 97 97
97 96 96 91 94 94 95 96 95 93 82 54 41 38 38 39 38 35 30 23 19 16 13 9 9 11 13 13 13 19 22 23 41 98 100 100 100 97 100 100 95 100 100
96 95 95 95 95 95 95 95 95 93 63 47 45 45 46 45 42 39 33 24 18 14 12 10 11 13 16 16 19 29 26 29 40 99 100 100 99 100 98 87 93 98 100
95 95 96 95 95 95 95 95 90 66 57 55 56 57 57 55 50 43 33 24 17 13 13 13 14 16 18 20 28 39 29 35 43 92 100 100 100 100 100 100 100 100 100
95 95 95 96 95 95 95 95 88 86 83 82 86 87 80 67 55 42 31 21 16 15 17 18 18 19 23 34 44 46 33 42 48 81 98 100 100 100 100 97 100 100 100
96 95 95 96 96 96 96 97 97 96 97 97 95 89 82 71 54 38 26 19 18 21 22 22 22 23 35 47 51 53 37 50 56 75 99 97 100 100 100 100 100 100 100
96 96 96 96 96 96 97 97 97 97 97 97 97 96 91 72 48 30 23 23 26 28 27 27 26 32 48 50 59 56 39 56 64 82 97 98 98 100 100 100 100 100 100
95 95 97 97 98 97 98 98 99 98 97 98 98 98 88 60 36 27 27 31 34 32 33 30 32 52 52 44 55 51 43 64 74 84 95 98 100 100 99 86 93 100 100

GFSGL_700_rhum_063.txt.gz
RH
44 46 52 56 69 86 96 99 81 75 63 71 60 53 58 62 83 89 85 98 90 95 100 92 98 100 94 89 99 97 93 50 22 10 7 6 8 10 19 29 44 58 61
62 63 74 70 94 89 100 91 95 74 72 62 58 57 55 70 85 99 81 99 75 100 99 100 98 96 97 100 96 72 36 11 6 6 6 10 16 25 46 78 99 96 87
94 91 85 75 72 90 82 64 62 59 51 48 50 47 61 88 100 72 97 96 100 95 99 99 98 93 93 96 67 23 6 6 9 12 15 16 14 20 32 72 62 92 95
66 70 65 67 66 63 54 51 56 47 46 49 47 52 76 94 93 60 100 77 100 98 99 91 96 99 83 44 9 7 8 13 17 16 12 12 11 14 66 82 82 84 81
59 47 40 43 43 44 49 45 45 51 57 62 56 39 38 50 61 97 77 88 100 99 90 100 86 59 13 8 9 12 16 16 12 12 12 10 10 9 17 47 70 82 98
36 39 41 41 42 46 50 51 53 62 65 29 23 28 44 56 65 61 61 70 53 88 100 67 18 10 11 12 17 18 14 14 14 13 12 9 8 8 12 32 62 75 88
34 37 40 42 55 58 53 56 65 42 25 22 28 33 40 44 46 50 45 47 68 63 23 12 13 13 14 19 18 16 16 16 12 9 7 6 6 5 6 13 29 60 90
38 38 46 52 58 58 60 46 29 23 24 28 30 31 34 44 45 40 39 35 20 14 17 16 13 19 21 18 18 18 17 14 8 6 5 4 3 3 4 7 16 75 95
48 54 56 60 65 56 35 28 23 26 29 29 31 35 44 41 35 32 23 18 20 23 14 16 21 22 20 20 19 18 15 8 6 5 3 3 3 4 5 6 6 58 100
42 54 63 54 37 32 28 25 29 32 34 37 44 44 42 36 30 25 23 27 26 16 20 24 24 22 22 20 19 15 11 7 6 5 3 2 5 9 6 6 14 79 100
55 49 36 34 33 28 28 32 35 38 42 44 44 45 41 34 30 26 30 24 18 20 26 26 25 24 22 20 15 10 8 7 6 3 3 3 13 50 44 9 9 69 99
38 35 36 36 30 30 34 38 41 45 50 51 49 46 40 35 27 31 25 20 22 28 30 28 25 24 21 17 11 10 9 6 4 3 4 11 49 66 36 13 9 40 96
36 39 38 33 32 35 40 47 52 59 62 58 52 44 37 28 32 29 21 24 30 32 29 27 25 23 18 12 11 11 10 5 4 5 5 21 87 71 44 55 47 58 97
40 40 38 37 42 50 54 62 72 76 71 61 47 34 28 32 33 24 27 33 35 30 28 25 23 20 15 13 12 13 8 4 6 6 7 35 85 70 60 62 96 100 99
42 43 44 48 53 62 72 83 90 87 76 57 36 28 31 31 27 30 36 36 31 27 24 24 24 22 19 16 15 14 7 5 8 9 12 74 89 80 86 90 100 97 86
46 48 52 61 71 80 92 98 98 92 67 38 31 33 45 34 33 39 39 32 27 25 26 26 25 24 22 20 17 14 6 6 9 10 13 94 97 87 90 99 100 99 98
51 59 75 86 95 100 100 99 97 88 69 64 69 93 71 67 52 44 37 30 29 31 30 30 30 28 24 20 17 10 6 7 9 10 13 46 100 100 100 95 100 95 93
62 82 94 100 100 100 98 97 92 67 70 90 94 93 90 87 81 68 41 33 36 36 36 36 35 32 25 20 14 8 7 10 11 13 18 22 66 99 92 92 86 88 84
80 98 100 98 97 96 96 96 92 94 96 96 96 96 96 96 75 47 40 42 43 44 44 43 40 34 25 17 10 8 11 13 13 18 22 21 85 100 100 94 91 93 100
99 98 98 97 96 95 94 95 95 96 96 95 95 95 94 88 65 53 51 54 59 57 53 49 41 32 22 14 10 11 14 16 20 29 26 26 76 100 100 100 100 90 75
97 96 95 95 96 96 96 96 96 96 96 95 95 96 96 95 87 75 81 88 76 63 56 48 40 27 17 13 13 15 18 22 31 36 30 31 85 100 100 100 100 100 98
94 95 96 95 95 96 96 96 96 96 96 96 96 95 96 98 98 99 98 87 77 68 55 45 32 21 16 16 17 18 22 35 43 41 34 37 84 100 99 100 100 96 100
96 95 96 96 96 96 96 96 96 96 95 96 97 97 98 98 97 97 97 96 88 70 50 33 23 19 22 22 23 25 34 44 49 44 38 43 76 100 100 98 93 100 100
96 96 96 96 96 96 96 96 96 96 97 99 100 100 100 100 99 99 100 99 88 63 36 27 24 26 26 27 28 41 47 52 57 42 44 48 71 100 100 100 100 100 100
96 96 96 96 96 96 97 97 99 100 100 100 100 100 100 100 100 100 100 94 72 36 30 30 34 34 32 32 45 55 46 52 56 42 53 56 70 100 100 100 100 100 100
96 96 96 97 98 100 100 100 100 100 100 99 100 100 100 100 100 100 88 63 36 34 35 41 41 39 37 42 64 65 48 47 46 51 64 64 81 100 100 100 100 99 100

GFSGL_700_rhum_066.txt.gz
RH
39 37 48 55 56 64 80 94 100 100 98 56 71 82 68 69 52 51 72 88 85 86 80 79 79 92 99 79 100 91 88 95 89 73 44 15 7 7 10 14 17 17 18
60 76 66 72 72 73 83 96 99 64 73 83 70 68 53 52 52 56 79 81 77 98 94 100 95 90 76 99 97 90 93 95 73 28 9 9 12 16 15 13 14 21 30
79 62 68 77 99 95 82 85 77 73 60 60 56 53 66 72 58 75 97 80 98 89 98 99 100 99 98 93 88 87 80 40 10 10 12 15 13 13 14 13 13 12 23
78 55 50 65 81 86 71 68 64 61 58 56 63 62 62 64 67 65 93 100 65 100 100 99 99 100 99 79 83 45 11 10 12 16 15 13 14 14 14 11 9 9 10
56 54 45 55 57 63 69 53 54 57 57 61 61 66 71 65 49 98 49 96 91 100 95 100 100 72 97 69 16 12 13 15 18 15 15 16 15 14 10 7 6 6 5
62 61 44 44 51 63 51 50 59 60 60 65 69 76 45 40 33 33 92 95 96 66 79 68 74 91 30 15 16 13 19 18 17 18 17 16 14 9 7 5 4 3 3
43 43 45 45 48 47 50 54 65 66 67 73 54 28 27 30 34 45 53 58 58 50 46 52 30 17 20 15 16 20 20 19 20 18 17 14 10 7 5 5 3 3 3
47 42 44 46 51 45 50 60 70 68 63 32 26 26 29 32 38 50 53 48 42 36 26 20 22 23 15 18 21 22 22 21 20 18 15 10 7 6 4 3 4 4 4
37 38 46 53 52 51 61 68 75 43 29 26 27 30 34 41 47 47 43 38 32 26 22 27 25 18 20 23 25 24 22 21 19 17 12 9 8 6 4 4 8 26 23
35 47 48 44 57 64 72 72 33 31 28 27 32 37 42 45 46 44 40 32 26 24 29 30 20 21 26 28 26 23 20 18 17 15 13 11 8 5 4 14 57 52 36
50 59 45 46 62 72 45 32 32 28 28 35 40 45 48 49 48 45 35 29 28 31 32 23 23 28 30 28 25 21 18 18 17 17 15 11 8 5 4 8 56 60 21
47 47 55 58 51 35 34 35 31 31 38 44 49 53 56 56 51 41 32 29 29 30 24 24 30 33 28 25 21 20 20 19 18 17 14 12 8 4 4 7 57 46 48
45 55 54 41 35 37 38 35 34 40 48 55 62 68 68 62 49 35 27 26 29 26 26 32 35 30 24 22 22 22 22 22 21 19 16 12 6 4 5 10 51 63 84
56 50 40 36 38 40 39 41 49 57 64 73 78 80 73 55 40 28 24 27 26 32 34 36 32 26 24 25 25 25 26 26 24 22 17 10 5 5 8 64 69 83 77
54 48 41 39 42 47 51 60 69 79 86 91 92 85 65 35 25 28 31 75 79 68 50 34 29 27 28 28 29 32 33 31 28 23 15 7 6 7 10 65 100 100 100
59 54 48 48 54 62 72 84 96 100 99 97 95 81 59 60 45 60 94 95 94 66 51 54 68 48 33 34 36 40 41 37 31 23 12 6 7 8 11 78 100 99 91
69 65 62 67 79 90 100 100 100 98 96 96 94 91 92 93 94 96 96 95 92 94 94 94 75 51 40 44 49 49 46 40 33 22 9 7 9 10 13 84 100 99 100
80 84 85 91 97 100 100 100 97 97 97 96 96 94 95 96 95 95 95 95 95 96 95 92 90 67 64 66 58 54 50 41 29 15 8 10 12 15 19 25 94 100 95
100 100 99 98 97 97 97 96 96 95 94 94 95 96 96 96 97 97 96 96 96 97 97 97 92 94 94 67 61 56 49 36 21 11 10 12 16 23 24 30 100 100 100
97 98 97 96 96 96 96 96 95 96 96 95 96 96 96 96 96 96 95 96 96 96 96 97 97 96 83 74 64 56 46 26 15 13 14 18 25 31 27 34 100 100 100
97 96 97 97 97 97 96 95 95 95 96 96 96 96 96 95 95 96 96 96 97 98 98 97 97 98 90 78 63 51 33 19 15 15 18 28 37 36 32 49 99 100 100
96 96 96 96 96 96 96 96 96 96 96 96 96 96 96 96 96 97 97 98 99 99 98 98 99 98 92 74 57 36 23 19 19 20 30 40 44 38 37 70 100 100 100
96 96 96 95 95 96 96 96 96 97 97 97 97 96 96 97 97 97 98 99 100 99 99 100 98 99 79 53 34 26 22 23 23 34 41 48 48 42 46 77 100 100 100
96 96 95 95 96 96 97 96 96 97 97 97 98 98 100 100 100 100 100 100 100 100 100 100 99 85 54 35 32 33 31 29 36 50 42 50 45 53 58 83 100 100 100
95 95 96 96 96 96 97 97 97 97 98 100 100 100 100 100 100 100 100 100 100 100 100 95 71 47 38 38 40 39 36 40 60 54 41 47 44 63 66 84 100 100 100
96 97 97 97 97 96 92 89 86 81 77 74 72 73 74 76 79 87 93 95 93 83 65 53 48 45 44 48 48 44 44 67 71 56 42 44 54 74 75 96 100 100 100

GFSGL_700_rhum_069.txt.gz
RH
40 44 46 49 52 57 62 66 70 77 87 100 95 93 89 83 92 80 63 64 68 73 86 60 99 95 90 88 74 96 100 85 94 82 74 59 38 13 11 11 13 13 12
59 61 64 67 68 62 61 64 71 80 89 66 66 70 74 81 79 74 66 88 79 97 84 95 79 100 99 100 100 86 97 100 83 78 58 20 14 12 13 13 13 14 14
61 68 78 75 62 61 66 94 96 90 87 88 79 79 81 82 73 64 84 80 79 92 97 97 97 89 99 100 73 88 71 99 87 50 16 15 13 15 14 15 13 13 13
55 60 71 66 65 70 82 100 90 71 94 87 84 73 65 62 59 59 78 86 88 85 78 99 88 100 100 100 64 100 78 81 36 15 15 15 17 17 16 14 14 13 12
47 53 60 64 62 70 65 68 72 68 72 67 65 65 58 60 65 71 77 82 53 84 99 86 56 99 100 69 84 93 71 22 17 14 18 19 19 18 17 16 14 13 10
34 42 51 64 63 52 51 54 58 55 54 57 60 58 62 67 73 81 79 37 47 98 74 82 100 100 60 87 76 44 14 19 16 20 22 22 20 18 17 15 12 12 11
32 42 52 54 56 52 50 50 50 51 54 63 68 68 71 76 79 45 36 38 41 70 100 88 82 55 44 34 18 17 18 18 22 24 24 21 19 18 15 14 13 13 11
39 44 54 55 54 50 47 48 49 50 57 74 77 78 83 56 38 38 38 47 53 72 65 58 50 42 24 16 22 20 20 24 26 26 23 20 18 16 16 16 14 10 7
49 59 61 63 58 51 54 55 55 59 69 76 75 67 37 35 36 40 43 48 57 59 56 48 33 20 18 22 20 21 25 28 27 24 20 18 18 18 16 14 11 9 7
58 51 52 48 57 69 76 76 80 78 78 83 54 36 36 37 40 45 52 58 57 51 41 25 16 19 25 22 22 26 30 30 24 19 19 20 22 23 23 16 12 7 5
54 60 46 40 54 72 66 82 93 87 81 45 39 40 42 45 53 61 62 59 51 40 26 20 21 24 22 24 28 31 32 26 20 20 22 25 28 28 27 20 12 5 6
48 47 41 44 53 56 73 98 95 56 41 41 42 44 52 60 67 70 66 57 38 25 22 21 23 24 25 29 36 37 30 23 22 24 26 30 35 35 31 23 13 5 11
46 46 45 48 56 76 84 59 45 46 48 51 54 62 69 76 80 76 64 45 29 21 20 22 23 27 33 80 68 43 26 29 34 31 31 38 42 39 34 26 12 6 13
44 47 48 57 77 69 52 48 48 52 55 61 68 75 84 91 89 78 53 31 26 23 23 25 45 80 96 96 73 40 52 73 56 43 48 54 46 41 35 24 12 6 21
42 48 57 67 70 59 58 57 60 64 68 74 80 86 93 97 91 78 74 63 30 27 39 73 94 96 94 74 54 85 94 85 73 72 80 60 49 43 36 20 7 7 22
45 54 66 70 69 68 69 68 72 80 88 95 100 100 98 96 95 91 72 41 72 93 97 96 96 92 90 95 96 96 96 95 94 95 82 60 51 45 35 15 8 9 12
60 61 74 81 82 82 84 86 94 100 100 99 98 98 96 96 95 94 94 97 97 97 97 96 96 96 97 96 96 97 96 96 96 95 78 62 54 44 26 11 9 12 19
92 97 97 94 100 100 100 98 98 97 97 97 97 96 96 96 96 97 97 97 97 98 97 96 97 97 96 97 97 96 97 97 96 89 73 63 51 37 17 10 12 14 19
97 98 96 96 98 98 99 98 98 98 99 98 97 96 98 97 96 97 97 97 97 96 96 96 97 97 97 97 97 97 97 97 94 85 73 59 39 22 12 14 19 25 24
100 100 100 99 98 97 96 96 96 97 97 97 96 96 96 96 96 96 96 97 97 97 97 98 97 97 97 97 98 97 97 96 93 82 63 42 24 16 15 20 32 31 28
98 98 96 97 97 97 97 97 96 95 96 96 96 96 95 96 97 97 97 97 97 97 97 97 97 97 98 98 98 98 98 97 90 71 49 29 20 19 25 32 39 36 33
97 96 95 95 95 95 94 95 94 94 95 96 96 97 97 97 97 97 98 98 98 98 98 99 99 99 100 100 100 100 97 94 73 47 30 24 23 27 42 46 44 39 52
95 95 95 95 96 96 96 95 96 95 96 97 98 98 98 98 98 99 99 98 99 100 100 100 100 100 100 100 100 98 94 78 46 33 31 30 34 48 49 53 45 47 81
95 96 96 96 97 96 96 97 96 96 98 98 99 99 98 99 100 100 100 100 100 100 100 100 100 100 100 100 100 89 61 43 38 40 38 36 54 51 54 51 54 57 92
96 96 96 96 96 96 96 96 96 96 92 81 63 44 31 25 22 24 25 28 33 37 44 51 59 69 74 69 59 53 51 51 52 48 42 55 67 49 52 54 68 69 96
96 95 95 95 94 83 63 38 19 11 9 8 8 7 6 6 7 9 12 16 22 31 41 51 60 65 65 63 60 60 63 63 58 54 63 74 66 51 58 73 78 77 99

GFSGL_700_rhum_072.txt.gz
RH
37 38 39 42 46 49 50 54 59 72 80 85 96 99 99 100 90 93 93 98 88 78 81 75 70 80 88 70 100 92 95 86 92 100 68 90 90 73 47 18 16 13 14
58 54 45 46 50 51 48 53 60 68 77 88 99 99 74 86 100 98 88 90 93 96 97 80 75 93 99 90 88 100 100 99 100 92 82 66 60 48 17 18 14 17 18
61 62 61 60 64 68 60 65 55 64 82 92 88 84 61 81 69 74 78 87 97 93 87 97 81 100 86 76 100 76 100 99 100 80 98 79 48 19 20 17 19 21 18
46 50 57 63 66 64 68 71 65 73 94 96 90 64 80 91 93 88 84 82 81 80 97 98 100 99 76 100 98 71 99 97 100 63 85 53 23 20 18 21 24 20 17
23 42 45 54 65 66 67 69 79 77 85 80 90 88 80 76 74 70 72 72 72 81 100 100 100 70 92 98 82 84 100 100 66 99 70 24 20 18 22 25 22 18 17
33 29 35 45 54 61 62 56 61 71 69 76 84 70 68 64 64 62 66 67 74 93 100 100 99 54 100 82 85 100 100 90 60 59 18 21 19 23 27 22 17 17 18
30 31 35 41 50 56 64 60 59 60 63 63 62 61 65 67 65 64 69 91 100 100 99 77 99 90 57 100 100 99 74 61 37 16 21 20 24 28 23 18 18 21 22
39 40 41 40 39 56 58 61 60 60 61 65 65 62 63 66 68 71 86 97 97 83 57 65 42 58 100 100 83 70 64 28 16 21 20 25 30 28 20 20 28 38 33
41 44 52 55 44 47 58 58 56 64 64 64 61 62 60 67 79 97 95 68 51 50 42 45 52 72 85 71 68 58 22 17 21 21 27 33 46 43 25 35 48 45 40
41 50 61 55 51 51 53 63 73 67 65 66 65 68 68 81 99 98 55 50 45 43 47 52 61 61 59 58 44 20 17 20 22 43 34 64 70 28 35 61 54 55 41
34 39 59 70 85 74 52 51 73 80 75 67 90 100 96 100 64 48 45 45 46 52 60 64 64 60 54 36 18 18 21 24 63 51 91 77 33 47 79 56 66 53 41
30 36 59 57 61 54 46 43 57 57 92 100 100 99 99 59 47 47 50 56 62 70 72 72 65 51 29 17 18 21 42 90 67 86 92 60 82 94 77 84 72 48 41
22 26 38 47 44 39 58 71 75 99 100 100 100 83 56 54 57 62 68 75 83 88 82 67 46 26 24 29 28 39 90 72 86 95 93 94 95 95 95 93 71 52 44
35 33 37 42 46 52 56 66 96 100 100 99 75 69 69 75 74 78 87 96 98 92 86 82 73 68 93 86 84 90 96 96 95 94 95 95 96 96 96 93 76 54 46
49 42 41 46 48 54 65 93 100 100 88 78 81 84 82 83 91 97 98 96 95 95 95 95 95 94 92 90 94 96 96 95 96 96 95 95 96 97 97 92 69 55 47
64 64 61 57 69 84 99 100 100 97 98 99 97 93 95 97 97 97 96 96 96 96 95 94 94 94 96 96 96 96 96 96 96 96 97 96 96 97 95 85 66 56 46
71 72 78 84 87 100 100 100 100 99 98 98 97 97 96 97 96 96 96 96 96 96 96 96 97 96 95 96 96 97 97 97 97 97 97 98 97 96 92 77 66 56 41
85 86 93 96 97 95 96 97 98 99 98 96 96 96 96 96 96 95 94 95 97 97 97 96 96 97 97 97 97 98 97 98 98 98 98 98 97 94 85 75 65 54 31
98 98 100 99 90 98 99 99 99 98 100 98 97 96 96 95 95 95 96 96 96 96 97 97 97 97 97 97 98 98 98 98 98 98 98 97 98 90 83 72 61 38 16
98 98 98 99 99 98 97 97 96 96 96 95 94 94 95 96 96 96 96 97 97 97 97 97 97 97 98 98 99 98 99 99 99 100 100 100 98 91 79 64 41 20 16
100 98 99 98 97 97 96 96 96 95 95 96 95 96 96 96 96 96 97 97 97 97 98 98 98 98 98 98 98 100 100 100 100 100 99 99 95 84 56 34 24 24 27
98 97 96 96 95 96 96 96 96 96 96 96 96 96 96 96 96 97 97 98 98 99 99 99 100 100 100 100 100 100 100 100 100 100 100 98 80 50 36 30 29 39 46
95 96 96 96 96 96 95 95 96 96 96 96 96 97 97 97 98 98 97 94 86 76 64 58 55 55 58 59 62 69 77 94 100 100 95 70 50 44 42 38 50 53 56
95 95 95 95 94 95 95 96 96 95 96 95 92 77 48 24 14 9 9 8 8 8 8 9 10 12 17 26 40 54 61 67 71 67 60 54 52 54 52 64 68 58 56
94 94 94 94 94 94 92 81 57 29 13 8 8 8 7 6 6 6 6 7 8 10 12 14 17 20 25 35 52 70 80 81 79 74 68 66 63 61 81 85 64 59 65
92 86 72 49 25 12 9 8 8 7 7 7 7 7 8 9 10 11 12 15 19 24 29 36 44 54 66 78 88 92 93 92 90 87 78 70 69 91 98 84 66 65 90

GFSGL_700_rhum_075.txt.gz
RH
36 32 34 36 38 42 45 47 50 52 54 54 56 55 55 61 64 62 60 64 82 98 100 98 83 76 76 84 87 88 99 92 80 98 100 100 99 99 88 98 70 56 20
53 50 48 41 41 43 46 48 50 52 50 52 58 64 65 82 94 99 98 100 99 99 100 96 96 97 94 99 94 87 98 82 92 96 96 100 98 99 92 96 73 24 21
58 57 54 54 52 48 52 52 52 56 56 58 66 81 92 100 100 93 92 99 100 100 94 93 95 98 98 99 77 98 100 69 96 87 77 100 88 98 71 76 44 19 19
47 52 59 60 61 63 62 64 62 70 78 69 69 81 94 96 95 87 85 86 82 77 79 99 96 93 89 100 94 86 96 65 97 75 63 90 99 95 65 62 21 21 21
24 26 29 53 57 59 69 65 71 74 80 82 83 89 100 95 88 80 91 99 100 100 99 90 75 81 74 100 95 99 92 90 98 88 82 100 98 74 58 25 22 22 25
28 31 32 33 53 44 61 60 67 68 69 76 85 82 82 99 80 76 85 84 81 78 75 72 78 97 100 100 100 74 100 99 74 99 99 100 81 69 30 20 23 24 31
26 25 24 30 31 34 41 48 59 61 60 58 65 67 72 82 94 92 89 81 76 72 72 74 85 90 100 83 100 87 95 58 100 100 100 84 78 31 17 21 25 34 59
34 37 37 34 35 38 38 40 52 64 64 55 57 63 69 68 70 72 72 74 72 76 78 96 99 98 100 100 79 73 71 100 100 100 95 84 32 17 20 28 50 78 70
38 36 42 44 46 51 52 44 57 63 67 70 69 66 64 60 58 61 64 66 74 96 100 97 100 100 87 89 58 98 96 100 100 98 82 27 17 20 36 50 80 83 57
39 41 44 47 54 68 64 48 49 56 62 62 60 62 72 70 66 65 65 72 92 100 96 99 95 70 65 58 88 100 100 95 97 68 20 18 22 36 55 84 88 79 76
37 44 50 48 48 63 58 57 60 58 50 48 70 70 65 72 81 81 79 98 100 96 99 81 81 60 64 86 98 92 96 92 56 26 29 32 47 67 93 94 91 90 86
42 49 52 51 46 48 54 55 70 74 58 50 62 84 88 76 96 99 100 99 99 100 85 81 69 73 83 89 94 96 95 86 65 48 51 58 86 95 95 94 96 94 94
60 56 41 35 38 42 44 47 49 48 41 52 55 81 99 94 96 100 99 100 100 95 92 88 84 86 94 96 96 96 93 74 86 93 95 95 96 97 96 97 97 96 93
46 41 47 52 38 33 38 44 43 58 83 75 98 98 100 99 99 99 97 100 98 98 97 89 90 94 96 96 96 95 95 96 95 95 96 96 98 99 98 97 95 94 89
63 54 55 52 51 43 42 47 57 75 95 100 100 100 99 99 98 100 99 98 96 96 96 97 97 96 96 95 95 95 95 94 96 97 97 96 95 94 94 96 95 92 88
74 70 70 66 67 65 63 60 60 88 99 99 98 98 98 98 98 98 97 97 96 96 96 96 95 94 94 95 95 95 96 96 96 96 95 94 94 94 94 96 95 94 90
96 93 91 79 76 81 86 91 94 98 98 98 97 98 97 98 97 97 97 96 96 95 94 95 96 95 94 95 96 97 97 96 96 96 96 96 95 95 93 92 95 95 92
99 98 99 98 97 96 100 100 100 100 100 99 98 97 96 97 95 94 94 95 95 97 96 93 93 96 97 97 96 94 94 94 94 94 95 96 96 94 94 97 98 92 85
96 98 96 89 88 95 99 100 100 100 100 98 96 96 96 96 95 95 96 96 95 92 92 93 94 94 95 97 97 97 96 98 99 98 98 98 98 98 98 95 92 93 88
91 99 98 99 99 100 100 99 98 99 97 96 95 95 95 96 95 95 92 90 90 91 92 93 93 94 95 97 98 99 99 99 100 100 100 100 100 100 100 100 99 95 84
99 97 100 99 97 97 98 97 97 96 95 96 95 94 94 92 90 89 90 90 91 92 93 94 96 97 97 96 92 81 72 72 78 85 91 98 100 100 100 100 100 88 61
97 96 96 97 95 96 96 96 95 95 94 93 91 90 90 89 89 90 90 87 84 70 54 35 21 10 8 8 8 8 9 12 19 28 40 65 98 100 100 100 80 57 47
97 96 96 96 96 96 96 96 95 95 95 94 94 92 86 69 46 24 11 8 7 7 7 7 7 7 8 10 11 12 14 17 22 39 61 78 92 94 86 74 65 58 53
95 95 96 95 94 95 95 95 94 86 65 35 15 8 8 7 7 7 7 7 8 9 10 10 11 13 16 20 24 29 36 46 61 80 93 95 93 90 84 77 69 70 81
95 95 95 92 82 62 29 10 8 8 7 7 7 7 7 7 8 9 10 10 11 13 15 19 24 29 34 39 47 59 73 86 95 97 96 95 94 91 85 81 93 100 100
54 22 10 8 8 8 7 7 7 7 7 7 8 8 9 10 11 12 13 15 19 25 30 34 36 37 40 44 54 66 76 86 94 98 99 97 92 92 97 100 100 100 93

GFSGL_700_rhum_078.txt.gz
RH
26 26 28 30 32 37 42 44 46 44 44 45 47 50 55 59 63 66 68 68 72 79 77 76 70 72 89 99 98 96 94 91 86 91 96 91 78 100 78 96 98 91 84
49 43 32 31 32 34 36 40 45 47 47 47 48 50 52 54 58 60 62 67 92 96 98 98 97 98 99 98 99 95 87 99 92 99 99 95 65 96 74 96 98 95 92
53 53 51 47 47 37 37 40 42 42 46 48 47 48 49 50 55 61 63 65 92 99 93 91 99 99 99 98 97 99 98 97 99 93 88 85 77 94 100 85 100 98 94
48 51 54 55 53 51 46 44 44 46 48 50 54 59 52 51 51 54 71 82 93 90 92 88 91 98 95 98 100 96 99 86 99 99 100 96 84 97 89 96 98 100 96
31 37 41 51 55 64 59 59 56 58 62 57 61 73 79 70 64 66 77 98 100 86 95 100 100 100 99 100 100 98 92 99 99 98 97 71 95 75 98 100 100 98 85
26 21 28 38 32 48 61 66 68 66 69 72 64 68 78 85 84 96 98 100 92 94 86 87 99 100 98 92 99 97 100 100 100 100 100 94 84 86 100 99 97 93 56
34 26 24 27 30 31 40 52 51 60 69 74 74 77 80 86 94 100 100 90 77 81 80 83 98 96 99 97 93 100 92 100 100 95 100 97 86 100 100 99 93 64 22
36 33 29 21 24 24 25 29 34 43 51 58 68 69 72 77 82 86 89 92 94 97 95 99 100 100 95 95 94 99 99 100 100 100 88 98 96 100 99 95 66 24 19
40 37 32 34 35 36 35 32 34 34 37 50 58 67 68 60 62 69 78 83 86 87 90 95 93 98 100 100 96 98 100 100 99 100 99 100 100 99 94 88 42 34 55
37 40 39 37 40 41 43 44 48 53 47 38 51 62 68 70 69 66 66 72 72 72 71 83 90 99 99 99 98 99 99 100 100 100 100 100 98 96 92 70 71 90 72
37 35 38 41 43 50 52 52 61 66 60 54 47 53 60 65 69 68 67 70 76 78 88 95 100 99 99 100 98 100 100 100 100 100 97 96 94 91 88 92 84 83 91
39 36 36 45 49 56 59 58 63 62 58 63 68 71 76 64 48 57 80 85 91 92 98 100 100 99 97 98 100 100 100 100 97 96 96 96 95 93 93 94 98 93 95
31 36 38 45 47 54 65 67 64 49 50 54 59 62 61 53 54 71 82 72 80 100 100 99 98 98 99 100 100 100 100 96 96 96 95 94 94 95 95 94 94 96 94
36 38 42 44 58 58 66 51 46 37 37 40 45 43 45 87 74 78 99 100 99 99 98 98 97 98 100 100 100 97 96 95 96 96 96 95 95 94 95 94 94 95 93
52 56 61 62 54 47 50 52 46 41 39 42 48 60 69 87 97 100 100 99 98 98 98 98 98 98 97 96 95 95 95 96 96 95 95 95 94 94 94 94 93 92 93
57 59 63 60 59 66 82 95 71 64 63 64 66 82 98 100 100 98 96 96 97 97 97 96 96 97 96 95 95 94 95 92 86 84 86 89 90 90 89 89 88 88 90
77 76 78 78 75 75 86 91 98 98 98 98 99 100 98 97 98 99 97 96 96 95 95 96 96 96 96 95 94 90 84 80 85 87 86 88 87 87 87 87 90 92 94
99 99 99 98 99 99 98 98 98 98 99 99 98 98 99 99 98 96 96 96 96 96 96 95 94 92 91 88 83 84 84 85 86 87 88 89 91 93 95 97 98 98 96
96 98 98 94 97 96 96 100 100 99 99 98 98 98 97 97 98 98 98 98 97 97 97 95 90 83 81 82 83 85 86 89 91 92 93 92 92 94 95 98 99 100 100
100 100 97 97 98 98 98 98 98 98 98 98 96 96 96 96 96 96 96 97 97 95 93 86 82 81 82 81 74 57 39 22 15 11 10 10 12 16 25 44 74 95 100
99 98 99 99 99 98 97 97 96 97 98 96 95 95 96 95 95 94 93 92 88 85 83 73 50 22 9 7 6 6 7 7 8 9 10 11 12 14 20 36 58 96 100
97 98 96 95 95 95 96 96 96 95 95 95 95 95 95 95 94 92 84 66 34 14 6 6 6 6 7 8 9 9 10 11 13 16 18 21 26 34 48 73 91 100 100
95 96 95 95 96 96 96 95 94 95 94 92 92 90 79 51 21 9 7 6 6 6 7 7 8 9 10 11 13 16 19 23 27 32 38 49 64 82 95 98 96 90 85
94 95 95 95 95 94 95 94 92 80 56 29 12 7 7 6 6 6 6 7 8 8 8 10 11 13 16 20 25 29 32 34 38 46 58 73 87 98 99 99 98 93 88
95 94 91 81 60 29 12 8 7 7 6 6 6 6 7 7 7 8 8 9 10 11 12 14 17 22 26 31 34 35 37 40 46 56 68 79 87 93 95 95 96 96 100
37 18 10 7 6 6 6 6 6 7 7 7 8 8 8 8 9 10 12 12 13 15 18 22 27 30 31 32 33 36 41 48 56 64 73 80 84 88 92 96 100 100 100

GFSGL_700_rhum_084.txt.gz
RH
16 20 22 24 27 32 36 37 38 51 53 45 73 86 97 98 97 100 96 94 97 91 85 94 94 88 90 93 95 91 93 94 97 99 99 99 96 99 98 93 90 82 89
18 19 20 22 25 26 28 33 39 40 41 42 52 61 63 72 65 67 68 73 70 69 74 87 86 83 89 84 96 90 94 90 99 100 100 100 100 99 97 85 96 97 89
22 24 26 27 30 30 27 28 31 36 41 44 46 46 48 51 55 57 59 67 72 69 73 77 76 84 83 78 83 84 99 97 96 100 99 96 100 98 96 100 99 95 86
23 34 39 41 44 46 43 35 32 32 34 36 41 45 47 50 51 52 56 59 64 64 68 75 69 76 68 71 79 77 98 99 90 94 98 94 85 95 99 96 94 98 99
31 38 41 44 48 52 55 55 51 40 38 38 38 40 43 45 47 48 49 50 51 51 55 57 57 57 56 60 71 97 99 99 93 100 95 91 100 97 96 98 99 99 99
43 44 47 46 47 47 52 57 62 66 54 46 48 43 41 42 44 46 47 49 50 54 61 72 76 73 70 82 90 98 100 100 100 100 95 100 98 98 87 97 100 99 98
34 32 32 33 33 28 26 32 40 54 52 58 59 58 55 51 53 50 48 50 53 54 59 66 75 80 91 100 100 100 100 94 100 92 100 93 98 98 95 99 99 99 98
40 37 33 34 34 34 34 27 22 27 41 43 45 50 64 65 65 68 63 54 57 62 64 66 72 82 93 100 100 100 100 95 83 91 99 100 100 99 99 100 99 99 97
43 37 38 39 36 36 36 34 28 25 25 28 33 38 40 55 54 52 60 71 74 76 80 85 89 90 94 100 100 100 100 99 100 100 99 96 99 98 100 99 98 97 98
75 94 51 46 45 39 38 39 40 31 28 29 29 25 25 29 28 32 36 40 54 71 76 78 86 92 91 89 100 100 95 98 92 98 100 100 99 100 98 98 94 98 96
45 50 49 43 43 46 46 48 48 51 38 43 35 30 33 38 41 44 48 50 50 51 70 79 93 96 99 100 100 100 100 99 97 99 100 100 99 98 98 97 97 97 96
50 51 54 52 49 49 45 47 50 52 48 51 40 48 38 40 47 53 58 60 67 74 94 100 100 100 100 100 98 88 99 100 100 99 99 99 98 97 97 97 95 95 95
48 50 51 65 66 58 65 62 52 61 61 64 66 68 68 54 57 62 74 82 79 98 97 99 100 100 100 100 100 99 100 99 100 98 97 96 96 95 95 94 94 94 93
66 57 55 55 66 77 75 78 81 72 75 79 92 95 99 99 100 96 98 100 96 99 100 100 100 100 100 100 100 99 98 99 96 96 96 96 96 95 94 93 94 93 87
82 99 93 87 71 72 82 95 96 99 97 95 98 100 100 98 97 99 99 100 99 100 100 100 99 99 98 98 97 96 96 95 96 96 95 94 95 95 94 90 79 72 71
57 89 100 100 100 97 96 92 94 100 100 100 100 97 97 100 99 98 98 99 99 98 99 98 99 97 95 96 96 96 96 96 95 95 95 95 94 83 73 72 65 46 22
94 95 88 87 97 98 98 99 100 100 100 99 99 100 99 96 99 99 99 99 98 96 96 96 96 95 94 95 95 95 96 95 93 89 80 74 68 44 12 5 5 5 6
71 98 100 95 97 96 94 96 98 95 97 96 97 99 98 98 98 97 97 96 96 96 96 95 94 95 95 95 95 95 93 88 76 52 20 6 5 5 5 6 6 7 7
91 97 94 98 99 94 88 98 97 98 99 98 96 99 97 97 97 96 95 95 95 95 96 95 96 94 94 95 95 85 50 17 6 5 5 5 6 6 6 8 9 10 12
98 100 99 97 98 98 98 99 94 95 96 96 96 96 95 95 95 95 95 95 94 96 95 95 95 93 81 44 16 6 5 5 5 6 6 7 7 9 11 13 15 17 20
100 100 95 95 96 96 96 98 97 96 95 95 96 96 95 94 95 95 94 95 95 95 92 74 27 9 5 5 5 6 6 6 7 7 8 9 11 14 17 20 24 27 33
96 97 97 97 96 97 97 97 96 96 94 94 94 94 94 94 94 95 95 93 80 40 10 6 5 5 6 6 6 7 7 8 8 10 12 14 18 22 24 26 28 34 42
96 96 96 95 96 96 95 96 96 94 94 96 95 93 85 65 39 18 7 6 6 6 6 6 6 6 7 7 7 8 9 11 12 15 19 21 23 25 27 30 35 42 51
97 95 94 94 95 93 89 81 70 50 24 15 10 6 6 6 6 6 6 6 6 7 7 7 8 8 8 9 10 12 15 18 19 20 21 22 25 28 32 37 44 51 58
89 73 52 36 24 16 9 7 6 6 6 6 6 6 6 6 7 7 8 8 8 9 9 10 10 10 11 13 16 18 19 20 19 18 21 25 30 36 42 53 60 66 71
9 8 7 6 6 6 6 7 7 7 7 7 8 8 8 9 9 9 10 10 10 10 11 11 12 14 16 19 21 20 19 18 18 21 29 36 41 50 58 64 67 70 73

GFSGL_700_rhum_087.txt.gz
RH
16 15 19 21 25 27 30 30 27 32 39 48 71 88 96 98 98 99 98 93 84 95 99 98 99 100 94 100 100 99 99 100 100 94 98 88 85 96 95 98 99 99 100
24 18 17 19 21 23 25 30 34 33 32 33 40 41 48 63 96 99 100 100 100 100 100 100 99 100 98 97 96 98 98 98 100 99 98 94 91 100 96 98 100 99 99
35 21 22 22 24 25 30 30 29 30 35 38 40 40 40 41 43 48 66 80 84 88 89 86 72 81 79 83 86 95 89 93 99 100 99 98 92 85 99 92 91 88 98
37 23 20 24 29 32 35 40 40 36 32 32 33 39 43 45 45 46 47 48 49 51 57 59 60 67 72 75 81 82 80 81 94 96 98 99 98 92 95 93 90 94 88
43 37 28 27 33 41 45 49 52 54 53 46 38 36 37 39 41 45 48 49 51 52 53 55 55 58 75 72 74 66 62 67 80 94 96 99 98 99 95 100 94 97 98
47 47 47 38 39 42 47 53 57 60 63 64 65 64 43 42 45 41 44 46 48 50 50 51 52 54 61 67 76 89 89 80 98 94 90 99 80 100 100 88 98 100 100
49 46 48 47 44 43 37 35 34 35 52 55 68 74 67 60 53 49 44 44 46 46 47 49 53 55 61 64 67 80 91 96 87 98 94 83 98 82 99 100 100 94 100
52 61 60 60 54 51 43 34 34 32 31 32 40 49 64 58 61 74 65 49 48 49 50 49 51 54 60 62 64 95 95 96 99 99 98 100 98 100 96 99 99 100 100
60 55 46 50 51 56 60 46 38 36 36 34 30 35 43 45 46 50 70 85 78 72 66 72 64 59 64 68 79 89 96 92 96 100 100 96 100 100 100 99 99 100 99
60 71 57 47 49 54 58 75 55 41 39 39 40 45 40 37 42 43 44 57 63 66 72 78 83 90 85 92 88 88 93 99 100 99 97 100 100 100 100 99 99 100 98
50 52 68 68 55 56 55 64 64 62 63 55 52 52 58 52 42 42 51 51 54 60 76 85 94 91 100 98 100 100 100 100 100 100 99 100 99 100 100 99 98 97 98
61 60 55 56 57 56 59 67 74 73 73 64 64 69 78 71 61 51 53 53 65 80 83 100 100 100 100 97 97 97 100 100 100 90 99 100 100 98 98 96 96 97 97
40 38 49 62 60 56 66 68 69 72 86 91 86 91 98 99 98 97 93 97 100 100 100 100 100 94 100 100 100 100 100 100 100 99 98 92 95 97 95 93 96 96 96
54 46 38 35 54 71 65 68 84 84 88 91 93 86 90 100 100 88 79 77 90 91 100 100 99 100 100 98 99 99 98 98 97 96 97 94 95 95 93 94 96 95 94
68 59 40 36 37 79 96 84 94 98 99 92 100 100 98 99 99 100 100 100 100 100 99 100 99 98 97 97 97 97 99 94 97 96 96 95 95 94 94 96 92 90 87
66 51 40 38 40 60 67 97 93 97 100 100 100 100 100 99 99 99 99 100 100 99 99 98 97 97 97 94 96 96 95 94 97 96 95 95 94 95 93 85 64 31 12
78 59 56 52 53 57 74 91 90 94 95 92 97 98 99 98 97 97 96 95 96 97 95 97 95 95 96 96 96 95 96 96 96 94 95 94 74 42 14 6 5 4 5
82 76 91 95 94 90 86 89 88 92 96 95 95 92 97 97 98 93 95 96 96 97 92 96 95 95 96 94 94 93 94 94 94 84 49 13 5 5 5 5 5 5 6
100 100 99 100 100 100 100 96 99 100 98 95 96 93 96 97 96 97 96 96 93 93 94 96 95 94 95 95 95 94 74 33 8 5 5 5 5 5 6 6 7 8 9
100 100 100 100 100 99 97 95 96 100 97 98 96 98 98 94 99 95 94 93 93 94 95 95 95 95 95 72 34 10 5 5 5 6 6 6 6 7 8 9 10 13 16
97 96 99 99 98 96 96 96 94 93 94 96 95 93 95 95 95 96 95 94 95 96 94 83 58 22 7 5 5 6 6 6 6 7 7 8 9 10 11 14 17 19 20
95 95 96 97 97 96 97 97 96 96 95 97 97 95 95 96 96 92 78 50 21 10 6 6 6 6 6 6 7 7 7 7 8 8 9 10 11 13 16 18 19 21 22
96 95 96 97 97 96 97 97 96 96 94 91 76 48 23 12 7 6 6 6 6 6 6 7 7 7 7 7 8 8 8 8 9 10 12 13 15 16 17 19 22 29 36
96 96 96 96 96 94 78 51 31 21 14 10 7 6 6 6 6 6 7 7 7 8 8 8 8 8 8 8 8 8 9 10 12 14 16 15 15 16 20 27 36 45 51
92 74 32 11 8 7 6 6 6 6 6 6 6 7 7 7 8 8 8 8 8 9 9 9 9 9 9 9 10 10 12 15 17 17 16 15 18 25 34 42 50 54 56
8 7 7 7 7 7 7 7 8 8 8 8 8 8 8 8 8 9 9 9 9 9 10 10 10 10 10 11 13 17 19 18 18 18 19 23 28 34 44 50 52 53 55

GFSGL_700_rhum_090.txt.gz
RH
38 17 16 20 24 25 28 30 31 45 55 63 73 91 97 95 89 88 86 94 93 87 87 98 93 100 98 98 100 100 100 97 99 80 90 97 100 100 94 99 98 84 89
40 36 16 16 19 21 24 27 31 30 32 36 40 45 61 85 92 99 91 87 89 93 93 93 91 100 97 98 96 100 100 96 100 96 92 93 98 100 100 98 93 95 86
35 43 27 19 19 21 23 25 28 29 31 32 34 35 38 45 58 65 85 91 87 93 91 86 86 88 96 100 100 100 100 100 100 100 96 98 90 91 97 94 97 99 86
49 39 40 21 21 24 25 26 28 31 30 32 33 36 38 40 43 46 51 53 59 64 74 79 88 95 89 91 88 81 89 94 93 97 98 92 98 95 86 87 100 99 95
63 52 47 48 37 27 28 35 37 40 42 38 34 34 37 39 40 42 44 45 47 50 56 61 65 71 68 70 78 78 82 81 88 92 88 79 79 72 77 86 95 99 99
56 54 65 61 54 52 47 39 42 46 50 53 53 48 45 43 38 40 43 45 48 49 50 51 53 57 57 60 69 78 86 88 83 81 72 66 68 78 87 94 99 93 88
53 58 56 57 59 63 60 58 53 55 61 52 55 64 66 68 60 54 44 46 48 47 48 50 50 51 54 56 56 68 86 85 81 83 83 83 89 97 94 98 92 98 98
54 54 57 60 59 60 60 56 58 54 53 48 40 36 40 37 56 74 80 72 50 47 47 47 48 47 49 52 59 65 70 76 77 85 90 96 96 92 97 99 91 90 97
60 64 67 64 62 62 57 57 63 64 62 60 54 47 43 37 34 40 64 80 85 76 74 72 61 51 50 52 55 58 59 64 74 82 85 90 100 100 99 98 99 100 99
60 56 54 55 62 62 61 63 64 64 66 67 68 68 58 54 52 50 47 49 58 64 68 66 72 79 83 77 81 82 83 85 86 93 99 100 100 99 92 99 93 100 100
45 59 64 62 58 56 58 57 67 67 66 68 74 79 78 91 89 65 73 70 56 54 63 68 97 92 88 99 95 97 99 99 100 100 100 100 100 100 99 100 99 99 98
38 40 38 42 50 60 62 57 58 71 71 70 72 78 84 93 99 84 92 89 81 96 65 76 91 95 100 100 99 100 100 100 97 99 100 100 99 100 100 99 99 97 97
40 33 33 40 39 35 34 41 62 61 69 75 74 75 76 74 82 82 89 81 100 89 100 96 98 95 95 92 79 100 100 100 100 100 99 99 99 97 95 96 96 96 97
46 48 52 51 52 44 34 31 30 39 77 94 99 99 100 90 100 100 94 88 87 99 100 100 99 99 100 100 100 99 99 97 98 98 96 96 95 95 96 97 95 96 95
43 48 52 54 55 52 39 34 35 39 51 70 98 100 100 100 97 82 99 100 100 100 100 100 99 100 100 100 98 98 96 96 95 97 96 95 95 96 96 94 94 94 95
58 64 68 69 67 59 53 51 51 47 55 62 74 88 91 78 86 74 98 84 98 97 98 98 96 95 96 95 96 96 96 94 95 96 95 96 96 96 92 92 94 75 29
54 57 61 66 70 71 68 64 53 47 52 69 73 80 96 97 95 94 90 90 98 92 97 100 98 96 93 96 97 93 95 96 96 94 94 96 96 93 84 39 9 5 4
62 65 73 81 89 97 96 88 68 71 76 82 82 85 88 94 95 99 90 95 97 92 96 94 97 95 95 96 96 94 96 95 95 94 94 82 30 9 5 4 4 4 5
74 92 97 100 100 100 100 100 100 98 95 93 90 90 90 90 94 96 97 93 93 97 93 98 95 94 96 96 96 95 95 93 72 33 8 5 5 5 5 5 6 6 7
100 99 96 97 98 100 99 98 97 99 98 95 93 92 91 93 94 92 94 95 95 96 96 96 96 95 96 94 69 30 7 5 5 5 6 6 6 6 7 8 8 9 11
93 96 96 92 94 96 97 96 97 97 96 97 95 96 95 94 94 94 95 95 95 94 90 69 28 9 5 5 5 5 5 6 6 6 7 7 7 9 9 10 11 12 14
97 96 100 96 93 96 96 96 95 96 97 97 96 96 96 94 85 68 38 17 8 6 5 5 5 6 6 6 6 7 8 8 8 8 8 9 10 11 12 13 13 14 14
97 98 97 98 94 94 96 97 95 96 93 74 41 20 10 8 7 6 6 6 6 6 7 7 7 7 7 8 8 9 8 8 8 9 10 11 13 13 13 12 14 20 24
95 95 96 96 96 94 90 60 24 11 7 6 6 6 6 6 7 7 8 8 8 8 8 8 9 9 9 9 9 9 9 9 10 12 14 15 15 14 13 16 21 28 34
95 92 81 60 27 12 7 7 7 7 7 7 7 7 7 7 8 8 8 8 9 9 10 10 10 10 10 10 10 10 11 12 14 15 16 15 15 15 17 22 31 35 34
42 22 11 8 8 8 8 8 8 8 9 9 9 9 8 9 9 9 10 10 11 11 12 12 12 12 12 12 12 12 13 15 17 17 16 17 16 19 23 30 38 37 34

GFSGL_700_rhum_096.txt.gz
RH
52 42 36 16 20 26 27 30 28 41 56 60 66 63 71 81 86 92 99 100 99 100 99 98 98 98 97 94 94 94 97 94 95 96 99 100 100 100 99 98 99 100 100
59 46 37 25 17 21 26 29 32 32 37 46 52 57 63 69 75 86 94 100 100 100 100 99 99 100 99 95 100 88 85 95 100 89 100 92 100 98 99 99 100 97 100
69 63 47 40 21 20 23 27 30 34 35 37 40 46 56 58 60 72 79 86 88 90 92 100 100 95 100 100 100 93 96 100 100 100 94 99 98 100 100 100 96 96 92
84 68 54 50 40 23 22 24 27 31 35 36 39 41 43 49 51 58 66 71 72 76 85 89 93 98 100 100 94 86 89 94 93 94 96 93 92 98 96 100 100 98 94
75 68 63 57 50 41 26 25 26 26 30 35 38 42 44 44 47 49 55 58 60 67 75 87 81 84 90 95 94 94 96 98 98 99 99 99 97 98 98 100 98 97 88
73 71 68 64 64 60 55 51 45 39 34 33 32 32 34 37 43 52 60 66 70 68 64 67 75 78 78 89 95 94 99 99 100 100 99 100 100 98 90 87 82 76 70
74 64 59 57 56 62 64 64 69 76 80 83 85 83 70 54 46 49 57 58 59 61 64 66 68 70 75 80 80 90 94 94 90 90 95 94 100 100 100 100 84 70 65
59 61 63 63 61 60 59 62 66 70 70 75 78 80 87 90 90 93 97 100 98 85 69 57 56 56 61 72 84 92 87 88 91 95 95 100 97 89 89 93 95 99 98
45 46 48 51 52 58 66 67 67 61 57 58 66 83 79 84 91 89 98 92 97 98 100 99 91 91 92 82 65 71 72 71 80 99 100 100 99 100 100 100 100 100 100
37 39 45 53 52 53 54 58 65 70 72 78 83 86 83 76 67 71 84 88 89 89 97 97 98 99 100 99 94 96 100 99 100 97 87 80 80 92 97 100 97 99 100
30 35 40 42 46 56 60 60 57 56 54 54 61 75 83 86 85 84 86 93 94 94 90 87 80 67 76 78 90 100 100 99 95 99 100 100 99 100 100 100 100 93 100
18 21 29 32 35 37 38 39 41 42 44 49 52 54 60 65 69 87 98 95 95 99 98 99 100 98 100 98 93 99 100 99 98 99 99 98 96 99 100 98 98 99 99
20 19 20 21 27 30 32 29 31 36 39 36 33 32 32 32 35 36 47 84 95 99 100 100 100 97 94 95 100 100 100 100 99 100 100 99 98 99 98 97 96 97 96
24 24 24 24 22 24 23 22 27 31 33 32 33 33 32 32 33 35 35 38 41 44 53 82 96 82 87 88 79 88 77 92 100 99 99 98 98 97 96 96 96 96 96
33 34 32 29 28 32 32 31 30 34 38 45 49 49 52 54 50 49 48 49 50 50 59 70 79 77 75 72 77 87 90 94 96 99 97 94 97 95 97 96 96 96 95
29 31 35 37 34 36 40 37 34 34 36 39 44 51 54 56 55 54 57 60 60 69 84 85 81 80 80 81 83 87 90 90 90 91 92 94 94 94 95 96 95 96 96
26 27 30 34 38 42 39 35 41 48 52 56 63 66 64 62 64 73 78 80 84 87 88 88 86 85 84 85 86 88 91 94 95 95 94 94 94 95 95 94 95 92 69
28 32 39 48 52 53 54 58 75 81 79 79 80 86 89 90 90 89 89 88 88 90 93 95 97 98 98 95 94 94 94 94 94 92 92 91 92 88 58 16 5 5 5
56 63 66 70 75 81 85 86 83 82 83 86 91 93 95 97 96 96 95 96 97 96 96 95 95 96 96 97 97 97 96 95 91 80 64 23 6 4 5 5 6 6 6
75 75 76 78 80 82 83 84 86 88 91 92 94 95 95 93 93 91 90 90 92 94 95 95 95 93 87 62 40 17 6 5 5 4 4 5 5 6 6 6 6 6 6
88 88 87 88 91 93 94 95 96 97 97 96 95 93 93 93 94 95 94 95 93 93 92 65 16 7 5 5 5 5 5 5 5 6 6 6 7 7 7 7 7 7 8
92 93 94 96 98 99 100 100 100 99 98 97 96 96 95 94 94 88 74 59 39 29 12 7 6 6 6 6 6 6 6 7 7 7 8 8 8 8 8 8 9 10 10
99 99 100 100 100 100 100 100 99 99 99 97 89 73 43 25 15 11 8 7 6 6 6 6 6 6 7 7 7 8 8 8 9 9 9 9 9 9 9 10 10 10 10
100 100 100 99 99 98 98 97 93 83 69 53 36 21 14 12 10 8 7 7 7 7 7 8 8 8 9 9 9 10 10 10 10 10 10 10 10 10 11 11 12 11 12
100 100 97 88 78 64 44 37 35 27 15 10 9 8 8 8 8 8 8 8 8 9 9 10 10 10 11 12 12 12 12 12 12 12 12 13 13 14 14 15 15 17 19
99 99 99 97 93 84 68 45 22 12 10 10 9 9 9 9 9 10 10 10 11 11 11 12 12 12 13 14 15 15 15 15 15 15 16 17 18 18 19 21 23 24 26

GFSGL_700_rhum_102.txt.gz
RH
29 37 50 62 60 34 19 26 27 27 47 57 61 62 66 67 69 84 99 100 100 100 100 100 100 100 100 100 100 99 99 100 98 98 99 98 99 85 83 100 95 95 98
33 39 53 67 61 38 18 26 26 28 33 49 57 59 60 61 61 71 81 93 94 87 98 97 97 100 90 97 96 99 99 99 97 88 98 100 98 90 87 87 89 88 89
36 45 62 73 64 40 18 24 26 29 31 34 45 53 55 53 54 59 61 62 66 63 78 89 85 90 87 93 87 93 99 99 95 98 90 93 93 98 97 92 89 83 87
43 56 68 78 70 45 22 19 24 26 30 34 38 45 47 50 48 49 50 51 56 58 62 64 85 93 97 98 98 89 99 100 100 98 96 93 97 86 95 83 82 81 78
58 65 74 79 70 50 34 21 21 24 26 29 32 35 39 43 47 48 48 49 48 48 50 53 60 62 66 77 79 88 94 98 100 100 97 85 98 98 98 90 89 82 84
70 75 83 81 78 76 67 40 25 24 25 26 28 30 32 35 37 37 38 38 40 41 43 47 53 59 65 75 80 85 92 94 86 91 84 95 88 84 88 91 91 89 84
85 83 88 88 75 75 83 77 45 34 30 30 32 35 45 46 40 45 50 52 60 60 55 52 54 56 64 68 67 72 82 86 89 98 93 91 92 93 96 96 96 97 99
100 99 100 98 91 89 89 87 82 68 67 69 68 78 81 70 74 75 76 79 79 80 89 99 98 99 100 97 94 92 92 87 95 95 99 98 96 95 99 99 99 99 100
100 100 100 100 100 100 96 97 98 88 82 80 76 73 74 72 71 68 78 84 85 98 93 91 76 97 100 98 100 100 100 100 100 99 99 99 99 100 99 99 99 99 99
100 98 100 100 100 100 100 100 100 98 89 92 91 88 92 92 84 81 76 74 86 96 98 100 96 89 85 83 88 88 96 100 100 99 99 100 100 100 99 100 98 100 99
60 75 69 76 78 80 72 73 71 69 68 70 72 76 80 81 85 84 85 87 92 91 88 99 99 99 97 98 98 98 94 99 92 99 99 99 93 97 93 82 90 97 86
66 47 45 49 40 44 45 50 45 42 43 43 43 44 44 44 42 41 40 40 43 50 64 92 97 100 99 100 100 100 98 100 100 98 89 90 88 88 95 100 96 97 97
51 63 66 40 27 24 31 33 39 36 35 38 37 35 36 38 38 37 36 36 35 34 33 33 35 34 35 34 36 37 41 43 44 50 57 64 67 72 80 91 96 97 96
33 30 27 25 25 24 25 30 27 32 31 30 28 27 24 24 26 27 27 27 28 28 31 33 36 36 40 42 44 47 50 51 55 59 62 65 68 72 75 78 81 81 82
36 36 35 33 33 34 34 32 33 29 31 30 29 26 24 25 23 24 24 25 27 30 37 41 46 48 50 51 52 54 58 63 69 72 73 72 72 74 75 78 81 83 84
28 29 28 28 30 32 31 31 28 28 27 26 27 28 27 28 28 28 30 35 40 46 52 56 60 63 66 70 74 77 79 80 80 81 80 80 80 81 81 81 82 82 84
30 29 28 27 26 24 23 23 23 23 24 27 29 28 30 32 32 34 37 42 48 49 56 66 74 80 84 85 84 84 84 84 84 84 84 84 84 83 83 83 82 78 66
38 38 40 38 36 34 33 33 36 36 35 36 38 39 39 40 42 44 48 50 53 59 69 76 81 84 84 84 84 84 84 84 84 84 84 81 74 61 43 25 13 5 4
56 58 58 59 60 59 56 55 56 58 61 62 61 60 61 62 62 62 63 66 73 80 82 82 82 81 80 80 79 79 78 74 64 53 40 22 11 5 4 4 4 5 5
74 76 77 77 77 76 76 77 77 77 76 75 76 77 77 77 78 78 81 84 86 87 88 88 87 86 86 84 80 74 66 52 37 24 13 7 5 5 5 6 6 6 6
87 86 86 86 84 84 84 84 85 86 85 84 84 85 85 85 87 90 92 90 89 88 88 82 65 40 25 13 10 8 7 6 6 6 6 6 6 7 7 8 8 8 8
91 91 90 90 89 88 88 88 88 89 88 88 89 90 91 91 92 93 91 81 64 44 26 16 12 10 8 7 6 6 6 6 7 7 7 8 8 8 8 9 9 9 9
91 92 92 91 91 92 93 94 94 94 94 94 96 97 97 94 81 55 41 36 32 23 15 10 8 7 7 7 7 7 8 8 8 9 9 9 10 10 10 10 10 10 10
96 97 97 98 98 98 99 99 98 97 97 95 94 83 66 55 42 28 22 15 12 9 8 8 8 8 8 9 9 9 10 10 10 11 11 11 12 12 12 12 12 12 13
96 98 99 98 97 95 91 84 70 64 67 66 76 78 65 49 32 19 13 11 10 9 9 10 10 10 11 11 11 11 12 12 12 13 13 14 14 14 15 15 15 16 16
98 98 99 99 99 99 99 98 96 92 85 71 56 46 36 27 18 13 12 11 11 11 12 12 12 12 13 13 14 14 14 15 16 16 17 17 18 18 19 19 20 20 20

GFSGL_700_rhum_105.txt.gz
RH
27 26 26 32 47 55 60 42 19 24 25 33 53 58 62 64 67 69 70 74 86 99 83 98 90 99 99 100 100 99 100 99 100 100 100 99 98 98 100 99 92 82 75
25 26 29 37 48 56 63 42 20 24 26 27 49 60 59 65 63 62 70 79 91 92 99 99 99 98 99 100 100 100 100 100 99 97 99 100 100 100 96 100 99 99 82
31 39 42 40 53 62 59 45 20 24 26 28 35 52 56 56 53 53 60 62 72 80 82 78 82 88 91 99 97 99 99 100 98 96 96 99 98 84 89 92 94 97 98
40 40 38 44 62 65 62 47 20 24 25 30 30 32 36 39 44 50 55 56 55 58 59 65 77 79 80 79 84 86 84 87 96 97 99 99 96 88 94 88 98 97 95
43 48 41 60 65 68 62 49 21 21 26 29 33 36 39 42 46 50 54 55 52 53 55 57 60 64 70 73 75 76 80 82 78 81 80 89 92 100 98 90 93 91 98
54 47 50 75 77 71 67 54 27 21 24 27 31 37 43 44 41 44 44 45 46 48 54 61 61 61 68 74 70 76 77 77 75 83 79 75 70 88 92 95 93 94 92
64 95 74 79 76 72 74 59 40 30 26 27 30 35 38 32 35 36 36 36 37 40 46 48 46 53 59 58 70 82 90 96 98 99 100 98 99 98 96 99 100 100 100
99 99 100 99 92 85 84 83 80 65 75 55 32 30 29 28 31 35 44 56 64 81 75 70 70 71 79 88 98 97 97 97 100 100 100 100 99 99 99 99 100 99 100
100 98 100 100 100 97 88 86 92 97 95 65 55 46 44 49 64 72 78 79 79 78 83 81 88 90 94 94 91 100 100 100 100 98 100 100 100 100 99 99 99 99 98
99 98 100 100 100 100 100 100 100 99 100 100 99 96 98 88 85 92 99 99 97 93 98 86 99 94 86 84 99 94 99 100 92 97 93 99 99 99 95 98 99 99 100
97 96 97 100 99 100 100 99 99 99 100 100 100 99 100 100 100 100 100 100 100 100 100 100 99 99 99 96 97 98 97 98 100 86 99 100 91 87 94 85 82 90 98
95 93 98 97 94 96 95 96 96 94 96 95 96 91 85 74 63 56 51 54 60 65 68 84 99 100 100 99 98 97 95 93 85 71 47 42 45 44 46 50 52 59 66
56 86 98 96 95 73 51 58 48 50 48 45 46 45 40 38 37 38 38 37 37 36 37 38 38 36 34 30 27 28 30 30 32 35 38 39 43 49 56 60 61 64 69
52 50 53 53 75 88 84 79 68 47 42 37 34 30 32 31 31 33 33 32 32 31 29 29 28 32 36 39 41 42 44 44 44 46 50 55 61 65 67 68 69 70 71
36 36 37 38 40 42 47 44 35 30 28 27 26 26 23 26 26 28 27 29 29 28 27 28 32 36 40 43 44 46 49 52 57 62 66 68 71 72 71 71 72 71 72
33 31 29 29 32 33 31 31 30 29 27 26 27 26 25 27 26 26 26 29 32 34 35 35 39 46 48 50 52 55 59 64 70 74 76 76 75 74 74 74 73 72 72
36 36 34 32 30 29 30 31 31 28 28 29 30 31 31 34 34 35 35 37 40 41 44 47 51 55 57 59 63 71 73 76 76 76 76 74 73 76 79 79 77 69 56
44 44 47 47 46 46 47 45 44 41 41 42 42 43 44 44 44 48 49 51 56 56 60 64 68 69 70 72 74 73 74 74 74 73 71 68 60 45 32 24 18 11 6
55 56 59 61 60 59 59 59 60 59 58 59 62 64 66 67 67 70 71 71 72 73 75 76 77 76 75 76 76 76 76 75 74 74 73 68 55 39 22 11 5 4 4
65 69 72 74 76 77 77 76 77 76 75 77 79 81 82 82 83 82 83 83 82 82 83 84 83 82 81 79 77 73 66 51 34 22 13 8 6 6 5 5 5 6 6
78 77 78 82 86 88 88 88 88 89 93 94 94 92 92 91 90 90 90 89 89 89 88 86 84 78 66 51 36 27 20 15 12 8 6 6 6 6 6 6 7 7 7
87 87 87 89 91 93 95 97 97 96 95 95 95 96 96 95 94 94 94 94 91 86 75 55 38 29 25 22 18 14 9 7 6 6 6 6 7 7 8 8 8 8 9
87 91 93 94 94 94 96 97 99 100 100 99 98 97 97 97 97 94 89 80 67 55 49 42 28 17 12 9 8 7 7 7 7 7 8 8 9 9 9 9 10 10 10
88 90 93 96 97 98 99 98 98 98 97 97 98 98 96 89 77 67 57 47 41 36 28 23 16 11 9 8 8 8 8 9 9 9 10 10 10 11 11 12 12 12 13
97 97 97 96 97 97 95 94 92 87 76 65 66 71 73 79 78 69 58 46 31 23 18 14 11 10 9 9 10 10 10 10 11 12 12 12 13 13 13 14 15 16 16
98 99 99 99 98 98 98 98 97 96 95 94 90 84 74 63 57 48 33 23 18 14 12 11 11 11 11 11 12 13 13 12 12 12 12 12 12 12 13 14 16 18 20

GFSGL_700_rhum_111.txt.gz
RH
80 66 69 72 70 63 63 40 30 30 39 59 53 28 23 29 55 56 64 76 91 100 94 100 99 99 98 100 100 100 98 99 96 99 100 100 100 100 100 100 100 92 91
76 73 83 74 65 64 71 47 34 36 42 61 55 26 23 27 52 57 59 66 77 100 99 99 100 98 100 100 99 100 100 100 99 99 100 100 99 100 100 98 99 100 99
82 89 90 81 73 81 76 50 43 47 49 60 56 27 25 26 48 53 59 68 76 82 92 98 99 98 96 100 99 100 100 100 100 100 100 99 100 100 100 100 92 92 91
90 89 86 86 79 98 77 96 95 73 54 60 55 26 27 27 38 54 54 56 68 75 77 83 88 96 100 100 99 100 100 100 100 100 99 100 100 100 100 100 98 96 100
100 100 100 99 99 99 98 69 100 71 66 62 59 27 30 30 31 47 46 39 47 60 68 79 96 92 90 86 86 82 83 93 97 94 84 96 94 95 99 100 99 100 99
99 100 99 79 81 82 87 99 98 73 69 69 83 30 29 29 37 44 44 44 46 46 48 52 57 59 62 63 66 68 70 69 75 72 74 70 83 83 100 100 99 100 100
100 100 100 99 100 100 99 94 100 83 70 78 79 78 29 33 42 48 52 52 49 46 47 50 49 50 53 55 57 59 58 61 58 61 71 87 75 84 92 98 100 100 100
100 100 100 100 99 99 99 100 87 92 93 93 80 83 78 35 47 56 60 62 54 52 52 52 51 53 56 60 63 68 70 71 75 83 88 92 94 98 100 100 99 100 99
99 100 100 99 100 100 100 98 99 91 95 100 100 99 99 60 58 72 78 78 82 68 65 57 53 55 59 80 79 87 78 87 95 100 100 99 98 100 100 90 99 100 98
94 97 100 100 100 100 100 100 100 100 100 100 100 99 100 76 88 75 73 70 78 77 78 80 81 80 68 84 97 99 100 98 99 99 100 95 98 99 97 98 100 96 96
96 96 96 94 96 98 98 100 99 98 100 100 100 99 100 97 99 100 100 86 89 85 86 79 72 95 100 100 100 99 99 100 99 100 99 98 90 100 99 96 84 93 73
62 89 94 94 91 92 95 98 94 96 98 97 98 99 99 99 99 99 99 99 97 99 99 99 100 100 100 100 100 100 100 98 86 93 100 98 94 93 74 47 37 35 35
38 39 37 34 54 86 95 95 95 96 97 95 96 96 96 96 97 97 98 99 99 99 99 97 99 98 99 99 95 85 99 100 88 73 50 41 35 33 32 32 32 32 33
37 36 36 37 41 49 73 83 83 90 94 96 96 97 90 94 96 96 97 96 96 91 89 94 74 58 58 50 43 42 42 42 41 40 38 36 34 32 33 33 34 38 43
36 38 39 38 41 42 41 50 65 78 99 95 94 90 90 95 96 95 95 96 88 86 72 65 49 50 44 42 36 34 36 30 36 50 44 40 41 39 42 46 49 51 56
44 40 40 40 37 38 39 40 41 44 52 54 71 86 91 94 96 95 90 93 86 64 69 78 74 57 49 35 37 47 48 51 50 51 54 53 54 52 52 53 54 54 55
52 50 50 51 51 51 52 50 48 51 55 55 57 60 62 73 58 55 51 48 46 45 46 47 49 55 54 52 54 60 61 57 57 60 63 58 59 61 59 60 59 58 59
58 61 60 56 54 56 58 63 65 68 69 68 68 68 70 74 75 68 64 60 61 63 69 73 71 66 67 68 70 71 69 70 69 69 68 66 64 65 64 62 57 48 36
53 58 64 70 72 71 73 75 76 77 77 77 80 85 86 87 84 82 78 78 78 80 78 81 82 81 82 81 79 79 78 77 76 73 70 66 59 49 40 35 31 23 15
34 44 52 60 70 76 77 81 85 88 88 89 90 94 95 96 97 97 97 97 96 95 92 89 88 86 84 85 85 83 79 74 64 55 48 39 32 26 22 16 10 7 6
27 41 49 56 64 74 79 84 92 93 94 96 98 99 100 100 100 100 99 97 97 97 97 96 93 90 87 81 70 55 47 39 36 33 32 23 14 9 8 7 6 6 7
35 40 54 61 69 72 81 85 87 93 97 97 97 96 97 99 97 97 97 97 97 98 97 93 87 78 61 52 47 47 44 33 23 19 16 11 9 9 8 8 7 7 8
76 75 70 70 82 91 92 90 90 94 96 98 99 100 98 100 100 100 100 99 98 95 88 83 74 59 48 45 38 33 26 25 20 16 12 9 9 8 8 8 9 9 10
82 88 92 92 86 85 92 98 98 97 96 96 95 93 88 80 77 75 72 68 64 69 73 70 66 49 40 34 29 20 18 14 12 11 10 10 10 11 11 11 11 10 10
60 66 75 85 94 98 96 94 96 99 100 100 100 100 100 100 100 96 95 89 78 71 64 55 51 31 32 23 16 12 11 11 11 11 12 13 12 11 11 11 11 11 11
31 31 30 31 41 56 71 84 92 94 94 94 93 92 88 86 77 74 71 56 43 33 28 25 17 15 14 13 13 13 14 15 14 14 13 12 12 12 12 13 14 15 16

GFSGL_700_rhum_114.txt.gz
RH
42 56 74 71 58 58 61 63 53 62 50 40 37 48 63 52 24 27 49 56 63 77 86 94 98 97 100 100 100 100 100 88 90 90 91 99 99 100 100 100 100 100 99
51 55 60 76 65 65 73 66 60 60 56 41 40 50 65 50 24 27 52 62 67 78 79 97 91 100 100 100 99 100 99 99 98 99 100 100 100 100 100 100 100 99 100
86 85 76 80 80 80 96 77 65 67 74 60 50 52 67 46 25 27 49 63 65 72 76 97 96 95 100 100 99 100 100 100 100 99 99 100 100 100 100 99 100 99 99
100 98 97 88 82 86 85 83 81 89 81 71 74 60 67 42 26 28 44 60 62 69 77 81 100 97 100 100 100 100 100 100 100 100 100 100 100 100 100 100 100 100 100
92 86 95 87 90 98 92 85 80 100 77 93 96 69 72 43 29 27 36 60 60 61 65 74 81 94 100 99 98 97 99 100 100 100 100 100 100 100 100 100 99 100 99
97 100 84 100 100 95 79 87 96 100 96 90 99 77 72 50 34 30 36 54 61 43 43 60 59 77 97 100 95 95 94 89 90 98 99 99 100 100 99 100 100 99 99
99 100 99 99 100 98 99 98 98 97 99 80 93 76 79 76 67 46 43 55 56 48 49 47 45 54 76 68 74 76 74 65 58 68 79 88 81 74 88 94 96 99 96
98 99 99 100 100 97 98 78 92 83 98 100 96 90 90 76 79 88 65 62 64 59 56 56 53 54 57 62 64 60 61 64 65 63 64 64 87 99 94 87 96 96 98
98 98 98 100 100 100 100 100 100 100 100 99 98 82 93 90 84 89 98 69 75 73 70 68 59 60 62 64 74 68 66 64 63 66 64 75 80 84 98 98 88 100 99
96 97 97 96 97 99 99 100 99 100 100 99 100 98 91 100 98 97 100 99 93 91 98 92 85 85 83 82 93 97 100 99 99 99 96 98 100 99 100 99 95 100 99
62 93 100 99 96 96 98 97 98 96 99 99 99 100 99 100 100 100 99 100 98 97 100 100 100 100 100 100 100 100 100 98 98 99 100 99 100 99 99 99 96 100 100
34 38 46 74 97 96 95 95 96 97 94 97 94 98 100 99 99 99 99 99 99 99 95 95 94 97 90 99 94 85 99 99 100 100 100 100 99 98 99 99 98 99 99
34 34 32 34 38 63 74 61 78 92 97 96 96 97 96 92 96 98 98 99 99 99 99 98 99 99 98 91 100 100 100 100 99 98 99 98 99 99 84 66 57 48 47
36 34 34 34 34 35 39 40 53 82 57 71 91 95 93 95 95 96 96 94 96 97 96 98 98 97 97 98 98 98 97 96 96 90 77 66 68 58 46 42 43 45 47
46 44 41 36 34 34 38 36 38 42 58 86 100 87 79 90 95 95 97 96 95 96 95 94 93 94 94 96 97 93 83 87 85 56 52 54 60 59 52 46 47 50 53
52 51 50 51 48 44 42 45 46 44 42 43 43 52 77 95 96 94 89 89 92 93 94 95 94 95 94 95 97 98 97 92 74 58 53 48 57 68 68 60 55 55 57
51 52 52 52 54 56 53 51 53 54 55 56 55 58 59 64 64 73 90 89 93 98 96 94 93 93 90 90 88 81 81 79 69 71 91 87 72 63 59 57 57 58 58
18 28 39 49 54 58 63 64 62 65 68 69 70 70 69 77 82 85 91 91 87 91 91 92 93 92 92 91 90 88 86 84 82 79 75 71 70 67 65 64 61 61 58
12 18 20 22 28 41 53 67 74 78 80 82 85 88 89 91 92 95 97 94 91 92 92 91 90 89 88 87 86 86 82 80 79 76 74 72 70 68 63 55 47 42 37
7 9 19 29 32 38 46 53 67 81 90 94 96 96 97 99 100 100 99 99 99 96 95 95 95 93 92 91 89 88 86 83 81 77 72 66 57 50 40 34 32 30 22
10 11 15 26 46 54 59 66 72 78 86 93 96 100 100 98 99 99 99 97 97 97 96 97 96 95 94 93 90 85 80 74 66 56 47 44 42 36 30 21 13 9 8
22 23 26 33 46 67 79 85 88 95 97 96 98 100 100 100 99 100 100 100 99 98 98 98 97 95 90 83 74 63 57 54 52 44 34 27 21 17 14 11 8 8 8
34 45 55 60 63 79 89 97 99 99 100 100 100 100 100 100 100 100 100 100 100 100 100 97 94 87 76 66 54 48 42 37 30 23 20 17 14 11 10 9 9 9 10
33 47 61 71 78 82 88 96 100 100 100 100 100 100 100 97 90 79 72 68 62 58 52 48 53 58 58 52 42 32 24 22 18 17 14 11 11 10 10 11 12 12 11
24 29 34 39 43 51 65 77 87 96 100 100 100 100 100 99 97 98 100 100 100 98 90 79 71 58 50 45 34 22 18 16 14 13 12 12 12 13 13 12 11 10 11
23 23 25 25 25 25 25 27 37 52 66 74 76 82 86 81 82 84 84 76 71 69 49 36 31 30 24 17 16 15 14 14 14 15 15 15 14 13 12 12 13 14 14

GFSGL_700_rhum_117.txt.gz
RH
33 35 41 45 47 49 46 50 56 59 64 72 60 56 42 41 40 55 59 27 25 52 56 68 71 100 99 95 100 100 98 100 99 100 99 98 100 100 86 86 98 99 99
43 39 47 58 69 93 73 67 67 64 68 75 76 70 55 42 42 61 60 26 27 51 62 70 77 98 99 93 97 100 100 100 100 99 100 83 76 84 98 99 100 100 100
73 86 82 76 65 65 62 70 74 66 72 76 78 72 66 45 45 65 57 26 26 44 64 70 76 82 100 100 100 97 100 100 99 100 99 100 98 99 99 100 100 100 99
96 99 88 92 85 78 76 85 81 74 76 84 77 88 80 53 54 69 56 26 26 38 61 69 76 82 100 100 98 100 100 100 100 100 99 100 100 100 100 100 100 100 99
75 94 98 98 100 82 91 91 90 100 95 90 89 98 74 60 59 72 53 28 28 37 54 64 68 73 99 98 96 100 100 100 100 100 100 100 100 100 100 99 99 100 100
98 97 86 84 94 89 90 81 100 94 90 90 95 99 73 66 63 74 42 30 32 38 55 62 61 83 84 100 100 96 100 100 94 100 100 100 100 99 99 100 100 99 100
82 80 90 92 98 99 98 91 95 89 79 79 100 98 90 78 88 74 39 42 39 44 49 59 49 49 85 92 96 99 97 96 89 90 98 99 92 100 99 100 100 100 100
97 95 98 100 100 98 93 95 99 100 100 99 97 98 98 90 100 68 70 78 74 61 63 63 61 68 100 91 97 99 99 95 98 92 89 79 74 98 99 98 95 100 99
88 90 93 94 98 100 93 100 86 100 100 100 98 97 100 93 98 77 88 83 80 82 83 70 68 61 77 80 89 94 87 96 87 85 79 77 77 89 92 91 99 100 91
38 73 84 92 99 97 97 94 98 100 100 100 100 99 98 100 99 93 97 94 83 89 96 84 80 74 77 85 83 83 79 90 87 88 83 81 88 94 97 97 97 94 99
31 30 31 49 82 94 96 98 98 94 97 98 98 99 100 100 100 100 100 100 100 100 99 100 99 96 96 96 98 99 94 88 91 88 100 100 99 100 95 97 100 99 99
32 30 29 30 33 39 62 90 96 98 98 99 97 98 98 98 99 99 100 100 100 100 100 100 99 99 96 100 100 100 100 100 100 94 99 97 97 97 100 99 99 99 99
38 35 32 31 32 33 33 35 46 75 91 99 100 98 92 94 96 97 96 98 98 99 99 99 99 99 99 99 99 99 98 100 98 98 98 94 99 99 99 100 99 99 99
47 47 45 42 38 33 33 33 35 44 58 75 78 96 100 100 97 95 96 97 95 96 97 98 96 97 97 98 98 99 99 99 99 98 99 93 95 98 98 97 95 91 88
45 46 47 47 46 45 43 41 41 41 40 41 47 61 87 89 98 98 99 99 96 97 96 97 97 96 96 96 96 96 96 97 98 96 98 96 97 96 92 85 80 77 70
18 24 30 39 45 47 48 48 48 50 50 48 47 46 51 56 79 97 94 92 95 97 95 95 95 96 96 97 96 95 94 95 96 96 94 85 84 88 91 93 93 90 81
11 10 10 10 11 17 32 45 51 54 55 57 59 60 62 64 62 65 71 82 95 96 98 99 96 96 94 94 95 96 96 96 96 96 96 96 96 96 92 87 80 77 80
6 7 7 8 9 11 15 22 34 48 59 64 71 76 76 73 76 80 82 88 91 91 90 87 90 92 95 96 95 96 97 96 96 95 95 95 94 95 95 91 89 88 84
4 4 4 5 7 10 13 18 28 44 58 70 79 85 89 92 92 90 92 92 91 92 91 89 91 93 94 93 93 94 95 98 95 93 92 90 88 85 81 78 75 68 60
5 5 6 6 9 14 24 33 35 40 53 69 81 88 94 98 100 100 100 100 100 100 99 98 98 98 97 96 95 94 92 91 90 88 85 83 79 75 68 63 56 47 41
8 9 9 11 13 22 38 56 69 71 69 73 81 90 96 97 99 100 100 100 100 100 100 100 100 100 100 100 98 97 94 92 87 81 74 62 53 43 38 36 34 29 22
11 11 11 14 22 36 53 68 82 91 96 96 94 93 96 100 100 100 100 100 100 100 100 100 98 98 98 98 96 92 85 78 63 51 44 41 40 34 28 23 18 17 18
12 12 13 15 25 42 63 80 87 94 98 98 100 100 99 97 96 98 100 100 100 99 98 98 99 99 98 94 90 85 76 63 51 41 33 31 29 28 26 21 17 14 12
15 16 17 19 23 30 42 52 61 72 84 96 100 99 99 99 100 99 96 92 82 71 67 68 71 69 64 61 58 54 50 43 37 35 31 24 23 21 18 14 11 10 10
19 20 21 22 22 23 26 29 31 31 35 46 60 83 95 93 93 98 100 100 100 100 100 100 100 97 93 88 84 76 67 58 47 37 30 22 14 12 12 11 12 12 12
23 24 24 24 25 25 25 25 25 25 24 24 25 27 33 47 72 88 92 92 90 83 76 80 80 76 67 54 44 32 24 20 18 16 15 14 14 14 14 14 13 12 12